﻿<?xml version="1.0" encoding="utf-8"?><gpx creator="Garmin Desktop App" version="1.1" xsi:schemaLocation="http://www.topografix.com/GPX/1/1 http://www.topografix.com/GPX/1/1/gpx.xsd http://www.garmin.com/xmlschemas/WaypointExtension/v1 http://www8.garmin.com/xmlschemas/WaypointExtensionv1.xsd http://www.garmin.com/xmlschemas/TrackPointExtension/v1 http://www.garmin.com/xmlschemas/TrackPointExtensionv1.xsd http://www.garmin.com/xmlschemas/GpxExtensions/v3 http://www8.garmin.com/xmlschemas/GpxExtensionsv3.xsd http://www.garmin.com/xmlschemas/ActivityExtension/v1 http://www8.garmin.com/xmlschemas/ActivityExtensionv1.xsd http://www.garmin.com/xmlschemas/AdventuresExtensions/v1 http://www8.garmin.com/xmlschemas/AdventuresExtensionv1.xsd http://www.garmin.com/xmlschemas/PressureExtension/v1 http://www.garmin.com/xmlschemas/PressureExtensionv1.xsd http://www.garmin.com/xmlschemas/TripExtensions/v1 http://www.garmin.com/xmlschemas/TripExtensionsv1.xsd http://www.garmin.com/xmlschemas/TripMetaDataExtensions/v1 http://www.garmin.com/xmlschemas/TripMetaDataExtensionsv1.xsd http://www.garmin.com/xmlschemas/ViaPointTransportationModeExtensions/v1 http://www.garmin.com/xmlschemas/ViaPointTransportationModeExtensionsv1.xsd http://www.garmin.com/xmlschemas/CreationTimeExtension/v1 http://www.garmin.com/xmlschemas/CreationTimeExtensionsv1.xsd http://www.garmin.com/xmlschemas/AccelerationExtension/v1 http://www.garmin.com/xmlschemas/AccelerationExtensionv1.xsd http://www.garmin.com/xmlschemas/PowerExtension/v1 http://www.garmin.com/xmlschemas/PowerExtensionv1.xsd http://www.garmin.com/xmlschemas/VideoExtension/v1 http://www.garmin.com/xmlschemas/VideoExtensionv1.xsd" xmlns="http://www.topografix.com/GPX/1/1" xmlns:xsi="http://www.w3.org/2001/XMLSchema-instance" xmlns:wptx1="http://www.garmin.com/xmlschemas/WaypointExtension/v1" xmlns:gpxtrx="http://www.garmin.com/xmlschemas/GpxExtensions/v3" xmlns:gpxtpx="http://www.garmin.com/xmlschemas/TrackPointExtension/v1" xmlns:gpxx="http://www.garmin.com/xmlschemas/GpxExtensions/v3" xmlns:trp="http://www.garmin.com/xmlschemas/TripExtensions/v1" xmlns:adv="http://www.garmin.com/xmlschemas/AdventuresExtensions/v1" xmlns:prs="http://www.garmin.com/xmlschemas/PressureExtension/v1" xmlns:tmd="http://www.garmin.com/xmlschemas/TripMetaDataExtensions/v1" xmlns:vptm="http://www.garmin.com/xmlschemas/ViaPointTransportationModeExtensions/v1" xmlns:ctx="http://www.garmin.com/xmlschemas/CreationTimeExtension/v1" xmlns:gpxacc="http://www.garmin.com/xmlschemas/AccelerationExtension/v1" xmlns:gpxpx="http://www.garmin.com/xmlschemas/PowerExtension/v1" xmlns:vidx1="http://www.garmin.com/xmlschemas/VideoExtension/v1">

  <metadata>
    <link href="http://www.garmin.com">
      <text>Garmin International</text>
    </link>
    <time>2015-09-01T16:15:18Z</time>
    <bounds maxlat="51.324132280424237" maxlon="6.692970469594002" minlat="51.201844587922096" minlon="6.20119976811111" />
  </metadata>

  <trk>
    <name>6-Niederrh.91km-Büderi-Strümp-Oed-Nettetal-Harigsee-Schwalmt-Kaarst-Dus</name>
    <extensions>
      <gpxx:TrackExtension>
        <gpxx:DisplayColor>Magenta</gpxx:DisplayColor>
      </gpxx:TrackExtension>
    </extensions>
    <trkseg>
      <trkpt lat="51.283426489681005" lon="6.659957924857736" />
      <trkpt lat="51.284194020554423" lon="6.65971334092319">
        <ele>36.5</ele>
        <time>2014-05-31T16:59:49Z</time>
      </trkpt>
      <trkpt lat="51.284881001338363" lon="6.659543691202998">
        <ele>37.399999999999999</ele>
        <time>2014-05-31T16:59:49Z</time>
      </trkpt>
      <trkpt lat="51.285851206630468" lon="6.659175390377641">
        <ele>36.5</ele>
        <time>2014-05-31T16:59:49Z</time>
      </trkpt>
      <trkpt lat="51.286814706400037" lon="6.658839276060462">
        <ele>37.600000000000001</ele>
        <time>2014-05-31T16:59:49Z</time>
      </trkpt>
      <trkpt lat="51.287323320284486" lon="6.658649761229754">
        <ele>37</ele>
        <time>2014-05-31T16:59:49Z</time>
      </trkpt>
      <trkpt lat="51.287831766530871" lon="6.658460330218077">
        <ele>36.899999999999999</ele>
        <time>2014-05-31T16:59:49Z</time>
      </trkpt>
      <trkpt lat="51.288258573040366" lon="6.658338792622089">
        <ele>36.600000000000001</ele>
        <time>2014-05-31T16:59:49Z</time>
      </trkpt>
      <trkpt lat="51.288172574713826" lon="6.656861901283264">
        <ele>35.899999999999999</ele>
        <time>2014-05-31T16:59:49Z</time>
      </trkpt>
      <trkpt lat="51.288086576387286" lon="6.655385009944439">
        <ele>36.600000000000001</ele>
        <time>2014-05-31T16:59:49Z</time>
      </trkpt>
      <trkpt lat="51.288516065105796" lon="6.654172567650676">
        <ele>35.700000000000003</ele>
        <time>2014-05-31T16:59:49Z</time>
      </trkpt>
      <trkpt lat="51.288945470005274" lon="6.652960209175944">
        <ele>36.200000000000003</ele>
        <time>2014-05-31T16:59:49Z</time>
      </trkpt>
      <trkpt lat="51.289791371673346" lon="6.651361528784037">
        <ele>37.399999999999999</ele>
        <time>2014-05-31T16:59:49Z</time>
      </trkpt>
      <trkpt lat="51.290637273341417" lon="6.649762764573097">
        <ele>35.700000000000003</ele>
        <time>2014-05-31T16:59:49Z</time>
      </trkpt>
      <trkpt lat="51.291683418676257" lon="6.647842219099402">
        <ele>36.5</ele>
        <time>2014-05-31T16:59:49Z</time>
      </trkpt>
      <trkpt lat="51.292280377820134" lon="6.64606693200767">
        <ele>36.399999999999999</ele>
        <time>2014-05-31T16:59:49Z</time>
      </trkpt>
      <trkpt lat="51.292877336964011" lon="6.644291477277875">
        <ele>38</ele>
        <time>2014-05-31T16:59:49Z</time>
      </trkpt>
      <trkpt lat="51.293588206171989" lon="6.642322400584817">
        <ele>36.600000000000001</ele>
        <time>2014-05-31T16:59:49Z</time>
      </trkpt>
      <trkpt lat="51.294520776718855" lon="6.640959838405252">
        <ele>36.600000000000001</ele>
        <time>2014-05-31T16:59:49Z</time>
      </trkpt>
      <trkpt lat="51.295040706172585" lon="6.640391629189253">
        <ele>35.899999999999999</ele>
        <time>2014-05-31T16:59:49Z</time>
      </trkpt>
      <trkpt lat="51.295560635626316" lon="6.639823419973254">
        <ele>35.600000000000001</ele>
        <time>2014-05-31T16:59:49Z</time>
      </trkpt>
      <trkpt lat="51.295540519058704" lon="6.638616425916553">
        <ele>36.899999999999999</ele>
        <time>2014-05-31T16:59:49Z</time>
      </trkpt>
      <trkpt lat="51.295520402491093" lon="6.637409431859851">
        <ele>36.399999999999999</ele>
        <time>2014-05-31T16:59:49Z</time>
      </trkpt>
      <trkpt lat="51.295497100800276" lon="6.63568158634007">
        <ele>36.600000000000001</ele>
        <time>2014-05-31T16:59:49Z</time>
      </trkpt>
      <trkpt lat="51.295473799109459" lon="6.63395382463932">
        <ele>35.700000000000003</ele>
        <time>2014-05-31T16:59:49Z</time>
      </trkpt>
      <trkpt lat="51.295436918735504" lon="6.632435694336891">
        <ele>36</ele>
        <time>2014-05-31T16:59:49Z</time>
      </trkpt>
      <trkpt lat="51.295400038361549" lon="6.630917564034462">
        <ele>36.100000000000001</ele>
        <time>2014-05-31T16:59:49Z</time>
      </trkpt>
      <trkpt lat="51.294902991503477" lon="6.62894387729466">
        <ele>35.100000000000001</ele>
        <time>2014-05-31T16:59:49Z</time>
      </trkpt>
      <trkpt lat="51.294473586603999" lon="6.627270178869367">
        <ele>35</ele>
        <time>2014-05-31T16:59:49Z</time>
      </trkpt>
      <trkpt lat="51.294685229659081" lon="6.625767974182963">
        <ele>35.799999999999997</ele>
        <time>2014-05-31T16:59:49Z</time>
      </trkpt>
      <trkpt lat="51.294896705076098" lon="6.624265685677528">
        <ele>34.600000000000001</ele>
        <time>2014-05-31T16:59:49Z</time>
      </trkpt>
      <trkpt lat="51.295513864606619" lon="6.623208895325661">
        <ele>35</ele>
        <time>2014-05-31T16:59:49Z</time>
      </trkpt>
      <trkpt lat="51.296131107956171" lon="6.622152104973793">
        <ele>35.100000000000001</ele>
        <time>2014-05-31T16:59:49Z</time>
      </trkpt>
      <trkpt lat="51.297077676281333" lon="6.620800271630287">
        <ele>34.5</ele>
        <time>2014-05-31T16:59:49Z</time>
      </trkpt>
      <trkpt lat="51.297252103686333" lon="6.620049336925149">
        <ele>35.399999999999999</ele>
        <time>2014-05-31T16:59:49Z</time>
      </trkpt>
      <trkpt lat="51.297124531120062" lon="6.61881510168314">
        <ele>36.600000000000001</ele>
        <time>2014-05-31T16:59:49Z</time>
      </trkpt>
      <trkpt lat="51.297446480020881" lon="6.617667116224766">
        <ele>36.700000000000003</ele>
        <time>2014-05-31T16:59:49Z</time>
      </trkpt>
      <trkpt lat="51.297768512740731" lon="6.616519130766392">
        <ele>36.5</ele>
        <time>2014-05-31T16:59:49Z</time>
      </trkpt>
      <trkpt lat="51.298036817461252" lon="6.614748872816563">
        <ele>36.5</ele>
        <time>2014-05-31T16:59:49Z</time>
      </trkpt>
      <trkpt lat="51.298311660066247" lon="6.612951792776585">
        <ele>36.899999999999999</ele>
        <time>2014-05-31T16:59:49Z</time>
      </trkpt>
      <trkpt lat="51.298576528206468" lon="6.610993780195713">
        <ele>36.600000000000001</ele>
        <time>2014-05-31T16:59:49Z</time>
      </trkpt>
      <trkpt lat="51.299143061041832" lon="6.611476661637425">
        <ele>36.5</ele>
        <time>2014-05-31T16:59:49Z</time>
      </trkpt>
      <trkpt lat="51.299800705164671" lon="6.610618606209755">
        <ele>36</ele>
        <time>2014-05-31T16:59:49Z</time>
      </trkpt>
      <trkpt lat="51.300525320693851" lon="6.609653094783425">
        <ele>36.5</ele>
        <time>2014-05-31T16:59:49Z</time>
      </trkpt>
      <trkpt lat="51.301008034497499" lon="6.60885882563889">
        <ele>36.299999999999997</ele>
        <time>2014-05-31T16:59:49Z</time>
      </trkpt>
      <trkpt lat="51.301363511011004" lon="6.60752828232944">
        <ele>36.799999999999997</ele>
        <time>2014-05-31T16:59:49Z</time>
      </trkpt>
      <trkpt lat="51.301766512915492" lon="6.606530919671059">
        <ele>36.799999999999997</ele>
        <time>2014-05-31T16:59:49Z</time>
      </trkpt>
      <trkpt lat="51.302725737914443" lon="6.606085672974587">
        <ele>37.899999999999999</ele>
        <time>2014-05-31T16:59:49Z</time>
      </trkpt>
      <trkpt lat="51.303617907688022" lon="6.605254271999002">
        <ele>38.600000000000001</ele>
        <time>2014-05-31T16:59:49Z</time>
      </trkpt>
      <trkpt lat="51.304225092753768" lon="6.60419731400907">
        <ele>38.200000000000003</ele>
        <time>2014-05-31T16:59:49Z</time>
      </trkpt>
      <trkpt lat="51.305055404081941" lon="6.602944387122989">
        <ele>36.5</ele>
      </trkpt>
      <trkpt lat="51.3060262799263" lon="6.601728089153767">
        <ele>38.200000000000003</ele>
      </trkpt>
      <trkpt lat="51.305467123165727" lon="6.600259831175208">
        <ele>39.399999999999999</ele>
      </trkpt>
      <trkpt lat="51.30479053594172" lon="6.598526872694492">
        <ele>40.299999999999997</ele>
      </trkpt>
      <trkpt lat="51.304792212322354" lon="6.597278388217092">
        <ele>41.299999999999997</ele>
      </trkpt>
      <trkpt lat="51.304854238405824" lon="6.595944995060563" />
      <trkpt lat="51.3052180968225" lon="6.595434872433543" />
      <trkpt lat="51.304946439340711" lon="6.594364335760474" />
      <trkpt lat="51.304664723575115" lon="6.593317771330476" />
      <trkpt lat="51.304371189326048" lon="6.592265926301479" />
      <trkpt lat="51.304047564044595" lon="6.59124618396163" />
      <trkpt lat="51.303646741434932" lon="6.589938523247838" />
      <trkpt lat="51.303472314029932" lon="6.589384479448199" />
      <trkpt lat="51.303758975118399" lon="6.589040486142039" />
      <trkpt lat="51.30373802036047" lon="6.588572859764099" />
      <trkpt lat="51.303916722536087" lon="6.587341809645295">
        <ele>42.299999999999997</ele>
      </trkpt>
      <trkpt lat="51.304096430540085" lon="6.585910096764565" />
      <trkpt lat="51.304078828543425" lon="6.585767939686775" />
      <trkpt lat="51.304014204069972" lon="6.585754528641701" />
      <trkpt lat="51.30391689017415" lon="6.58543786033988" />
      <trkpt lat="51.303593264892697" lon="6.584402611479163">
        <ele>41.799999999999997</ele>
        <time>2014-05-31T16:59:49Z</time>
      </trkpt>
      <trkpt lat="51.303127063438296" lon="6.583080282434821">
        <ele>42.899999999999999</ele>
        <time>2014-05-31T16:59:49Z</time>
      </trkpt>
      <trkpt lat="51.302270013839006" lon="6.581151522696018">
        <ele>41.799999999999997</ele>
        <time>2014-05-31T16:59:49Z</time>
      </trkpt>
      <trkpt lat="51.301565682515502" lon="6.579649485647678">
        <ele>41.600000000000001</ele>
        <time>2014-05-31T16:59:49Z</time>
      </trkpt>
      <trkpt lat="51.300861267372966" lon="6.578147364780307">
        <ele>41.5</ele>
        <time>2014-05-31T16:59:49Z</time>
      </trkpt>
      <trkpt lat="51.300271097570658" lon="6.576699474826455">
        <ele>39.399999999999999</ele>
        <time>2014-05-31T16:59:49Z</time>
      </trkpt>
      <trkpt lat="51.29968092776835" lon="6.575251501053572">
        <ele>39.899999999999999</ele>
        <time>2014-05-31T16:59:49Z</time>
      </trkpt>
      <trkpt lat="51.298895878717303" lon="6.573159210383892">
        <ele>39</ele>
        <time>2014-05-31T16:59:49Z</time>
      </trkpt>
      <trkpt lat="51.298110913485289" lon="6.571066919714212">
        <ele>39.299999999999997</ele>
        <time>2014-05-31T16:59:49Z</time>
      </trkpt>
      <trkpt lat="51.297560892999172" lon="6.569017712026835">
        <ele>39.299999999999997</ele>
        <time>2014-05-31T16:59:49Z</time>
      </trkpt>
      <trkpt lat="51.297010788694024" lon="6.566968420520425">
        <ele>41.5</ele>
        <time>2014-05-31T16:59:49Z</time>
      </trkpt>
      <trkpt lat="51.296688839793205" lon="6.564029138535261">
        <ele>41.299999999999997</ele>
        <time>2014-05-31T16:59:49Z</time>
      </trkpt>
      <trkpt lat="51.296373512595892" lon="6.561014335602522">
        <ele>37.899999999999999</ele>
        <time>2014-05-31T16:59:49Z</time>
      </trkpt>
      <trkpt lat="51.296058185398579" lon="6.557999532669783">
        <ele>40.5</ele>
        <time>2014-05-31T16:59:49Z</time>
      </trkpt>
      <trkpt lat="51.295850314199924" lon="6.556379478424788">
        <ele>40.799999999999997</ele>
        <time>2014-05-31T16:59:49Z</time>
      </trkpt>
      <trkpt lat="51.295642275363207" lon="6.554759424179792">
        <ele>41.5</ele>
        <time>2014-05-31T16:59:49Z</time>
      </trkpt>
      <trkpt lat="51.295493077486753" lon="6.553402226418257">
        <ele>40.299999999999997</ele>
        <time>2014-05-31T16:59:49Z</time>
      </trkpt>
      <trkpt lat="51.295343795791268" lon="6.552045028656721">
        <ele>40</ele>
        <time>2014-05-31T16:59:49Z</time>
      </trkpt>
      <trkpt lat="51.295045232400298" lon="6.54933063313365">
        <ele>41.299999999999997</ele>
        <time>2014-05-31T16:59:49Z</time>
      </trkpt>
      <trkpt lat="51.294746669009328" lon="6.546616069972515">
        <ele>38.899999999999999</ele>
        <time>2014-05-31T16:59:49Z</time>
      </trkpt>
      <trkpt lat="51.294448105618358" lon="6.543901674449444">
        <ele>38.799999999999997</ele>
        <time>2014-05-31T16:59:49Z</time>
      </trkpt>
      <trkpt lat="51.294209808111191" lon="6.541600422933698">
        <ele>38.5</ele>
        <time>2014-05-31T16:59:49Z</time>
      </trkpt>
      <trkpt lat="51.293971510604024" lon="6.53929908759892">
        <ele>38.200000000000003</ele>
        <time>2014-05-31T16:59:49Z</time>
      </trkpt>
      <trkpt lat="51.293806973844767" lon="6.537190787494183">
        <ele>40.600000000000001</ele>
        <time>2014-05-31T16:59:49Z</time>
      </trkpt>
      <trkpt lat="51.293654339388013" lon="6.535793440416455">
        <ele>40</ele>
        <time>2014-05-31T16:59:49Z</time>
      </trkpt>
      <trkpt lat="51.293481672182679" lon="6.534712426364422">
        <ele>39.600000000000001</ele>
        <time>2014-05-31T16:59:49Z</time>
      </trkpt>
      <trkpt lat="51.293669678270817" lon="6.534524504095316">
        <ele>40.399999999999999</ele>
        <time>2014-05-31T16:59:49Z</time>
      </trkpt>
      <trkpt lat="51.294743316248059" lon="6.533783795312047">
        <ele>40.600000000000001</ele>
        <time>2014-05-31T16:59:49Z</time>
      </trkpt>
      <trkpt lat="51.295521575957537" lon="6.533274175599217">
        <ele>41.299999999999997</ele>
        <time>2014-05-31T16:59:49Z</time>
      </trkpt>
      <trkpt lat="51.296299835667014" lon="6.53276463970542">
        <ele>41.299999999999997</ele>
        <time>2014-05-31T16:59:49Z</time>
      </trkpt>
      <trkpt lat="51.297057894989848" lon="6.532190730795264">
        <ele>41.299999999999997</ele>
        <time>2014-05-31T16:59:49Z</time>
      </trkpt>
      <trkpt lat="51.297816038131714" lon="6.531616738066077">
        <ele>43.299999999999997</ele>
        <time>2014-05-31T16:59:49Z</time>
      </trkpt>
      <trkpt lat="51.298875929787755" lon="6.531010558828712">
        <ele>43.399999999999999</ele>
        <time>2014-05-31T16:59:49Z</time>
      </trkpt>
      <trkpt lat="51.299935821443796" lon="6.530404463410378">
        <ele>43.200000000000003</ele>
        <time>2014-05-31T16:59:49Z</time>
      </trkpt>
      <trkpt lat="51.300777699798346" lon="6.52914927341044">
        <ele>38.600000000000001</ele>
        <time>2014-05-31T16:59:49Z</time>
      </trkpt>
      <trkpt lat="51.301619578152895" lon="6.527894083410502">
        <ele>39</ele>
        <time>2014-05-31T16:59:49Z</time>
      </trkpt>
      <trkpt lat="51.30276320502162" lon="6.525807324796915">
        <ele>38.5</ele>
        <time>2014-05-31T16:59:49Z</time>
      </trkpt>
      <trkpt lat="51.303906831890345" lon="6.523720482364297">
        <ele>38.799999999999997</ele>
        <time>2014-05-31T16:59:49Z</time>
      </trkpt>
      <trkpt lat="51.305181216448545" lon="6.521408502012491">
        <ele>39.600000000000001</ele>
        <time>2014-05-31T16:59:49Z</time>
      </trkpt>
      <trkpt lat="51.306455517187715" lon="6.519096521660686">
        <ele>40.600000000000001</ele>
        <time>2014-05-31T16:59:49Z</time>
      </trkpt>
      <trkpt lat="51.307686232030392" lon="6.516779009252787">
        <ele>39</ele>
        <time>2014-05-31T16:59:49Z</time>
      </trkpt>
      <trkpt lat="51.308916863054037" lon="6.514461580663919">
        <ele>40.200000000000003</ele>
        <time>2014-05-31T16:59:49Z</time>
      </trkpt>
      <trkpt lat="51.309812134131789" lon="6.512830713763833">
        <ele>40.299999999999997</ele>
        <time>2014-05-31T16:59:49Z</time>
      </trkpt>
      <trkpt lat="51.31070732139051" lon="6.511199763044715">
        <ele>38.799999999999997</ele>
        <time>2014-05-31T16:59:49Z</time>
      </trkpt>
      <trkpt lat="51.311954632401466" lon="6.508844615891576">
        <ele>38.799999999999997</ele>
        <time>2014-05-31T16:59:49Z</time>
      </trkpt>
      <trkpt lat="51.31320177577436" lon="6.506489468738437">
        <ele>39.5</ele>
        <time>2014-05-31T16:59:49Z</time>
      </trkpt>
      <trkpt lat="51.314361914992332" lon="6.50465483777225">
        <ele>40.100000000000001</ele>
        <time>2014-05-31T16:59:49Z</time>
      </trkpt>
      <trkpt lat="51.315522138029337" lon="6.502820206806064">
        <ele>39</ele>
        <time>2014-05-31T16:59:49Z</time>
      </trkpt>
      <trkpt lat="51.314912186935544" lon="6.500991275534034">
        <ele>38.700000000000003</ele>
        <time>2014-05-31T16:59:49Z</time>
      </trkpt>
      <trkpt lat="51.314302319660783" lon="6.499162428081036">
        <ele>37.5</ele>
        <time>2014-05-31T16:59:49Z</time>
      </trkpt>
      <trkpt lat="51.313752382993698" lon="6.497488562017679">
        <ele>38.5</ele>
        <time>2014-05-31T16:59:49Z</time>
      </trkpt>
      <trkpt lat="51.313202530145645" lon="6.495814695954323">
        <ele>38.5</ele>
        <time>2014-05-31T16:59:49Z</time>
      </trkpt>
      <trkpt lat="51.312652509659529" lon="6.494140913709998">
        <ele>39.700000000000003</ele>
        <time>2014-05-31T16:59:49Z</time>
      </trkpt>
      <trkpt lat="51.312102572992444" lon="6.492467131465673">
        <ele>39.100000000000001</ele>
        <time>2014-05-31T16:59:49Z</time>
      </trkpt>
      <trkpt lat="51.311867879703641" lon="6.490374924615026">
        <ele>39.200000000000003</ele>
        <time>2014-05-31T16:59:49Z</time>
      </trkpt>
      <trkpt lat="51.311633186414838" lon="6.488282801583409">
        <ele>38.399999999999999</ele>
        <time>2014-05-31T16:59:49Z</time>
      </trkpt>
      <trkpt lat="51.312048509716988" lon="6.484270635992289">
        <ele>37.799999999999997</ele>
        <time>2014-05-31T16:59:49Z</time>
      </trkpt>
      <trkpt lat="51.312370961531997" lon="6.481888582929969">
        <ele>37.899999999999999</ele>
        <time>2014-05-31T16:59:49Z</time>
      </trkpt>
      <trkpt lat="51.312739932909608" lon="6.47889532148838">
        <ele>38.100000000000001</ele>
        <time>2014-05-31T16:59:49Z</time>
      </trkpt>
      <trkpt lat="51.313108736649156" lon="6.47590197622776">
        <ele>39.200000000000003</ele>
        <time>2014-05-31T16:59:49Z</time>
      </trkpt>
      <trkpt lat="51.313415514305234" lon="6.473732069134712">
        <ele>39.700000000000003</ele>
        <time>2014-05-31T16:59:49Z</time>
      </trkpt>
      <trkpt lat="51.313722291961312" lon="6.471562078222632">
        <ele>38</ele>
        <time>2014-05-31T16:59:49Z</time>
      </trkpt>
      <trkpt lat="51.314022280275822" lon="6.46904893219471">
        <ele>37.299999999999997</ele>
        <time>2014-05-31T16:59:49Z</time>
      </trkpt>
      <trkpt lat="51.314322436228395" lon="6.466535618528724">
        <ele>38.299999999999997</ele>
        <time>2014-05-31T16:59:49Z</time>
      </trkpt>
      <trkpt lat="51.314655868336558" lon="6.464022304862738">
        <ele>41.399999999999999</ele>
        <time>2014-05-31T16:59:49Z</time>
      </trkpt>
      <trkpt lat="51.314989468082786" lon="6.461509075015783">
        <ele>41.299999999999997</ele>
        <time>2014-05-31T16:59:49Z</time>
      </trkpt>
      <trkpt lat="51.314664166420698" lon="6.458113314583898">
        <ele>36.799999999999997</ele>
        <time>2014-05-31T16:59:49Z</time>
      </trkpt>
      <trkpt lat="51.314178016036749" lon="6.455345274880529">
        <ele>38.299999999999997</ele>
        <time>2014-05-31T16:59:49Z</time>
      </trkpt>
      <trkpt lat="51.313691781833768" lon="6.452577318996191">
        <ele>37.100000000000001</ele>
        <time>2014-05-31T16:59:49Z</time>
      </trkpt>
      <trkpt lat="51.312960628420115" lon="6.449809363111854">
        <ele>36.700000000000003</ele>
        <time>2014-05-31T16:59:49Z</time>
      </trkpt>
      <trkpt lat="51.312155798077583" lon="6.44736310467124">
        <ele>37.200000000000003</ele>
        <time>2014-05-31T16:59:49Z</time>
      </trkpt>
      <trkpt lat="51.311579123139381" lon="6.445196215063334">
        <ele>37.600000000000001</ele>
        <time>2014-05-31T16:59:49Z</time>
      </trkpt>
      <trkpt lat="51.3111637160182" lon="6.443817727267742">
        <ele>38.5</ele>
        <time>2014-05-31T16:59:49Z</time>
      </trkpt>
      <trkpt lat="51.310642194002867" lon="6.442094324156642">
        <ele>37.5</ele>
        <time>2014-05-31T16:59:49Z</time>
      </trkpt>
      <trkpt lat="51.310120671987534" lon="6.440370921045542">
        <ele>37.700000000000003</ele>
        <time>2014-05-31T16:59:49Z</time>
      </trkpt>
      <trkpt lat="51.309597473591566" lon="6.439575562253594">
        <ele>37.299999999999997</ele>
        <time>2014-05-31T16:59:49Z</time>
      </trkpt>
      <trkpt lat="51.309154741466045" lon="6.439155712723732">
        <ele>37.5</ele>
        <time>2014-05-31T16:59:49Z</time>
      </trkpt>
      <trkpt lat="51.308403220027685" lon="6.438664868474007">
        <ele>38.700000000000003</ele>
        <time>2014-05-31T16:59:49Z</time>
      </trkpt>
      <trkpt lat="51.307651614770293" lon="6.438174108043313">
        <ele>38</ele>
        <time>2014-05-31T16:59:49Z</time>
      </trkpt>
      <trkpt lat="51.306900009512901" lon="6.437683263793588">
        <ele>38.799999999999997</ele>
        <time>2014-05-31T16:59:49Z</time>
      </trkpt>
      <trkpt lat="51.306148404255509" lon="6.437192419543862">
        <ele>38.200000000000003</ele>
        <time>2014-05-31T16:59:49Z</time>
      </trkpt>
      <trkpt lat="51.305512636899948" lon="6.436521867290139">
        <ele>37.899999999999999</ele>
        <time>2014-05-31T16:59:49Z</time>
      </trkpt>
      <trkpt lat="51.304876701906323" lon="6.435851315036416">
        <ele>37.5</ele>
        <time>2014-05-31T16:59:49Z</time>
      </trkpt>
      <trkpt lat="51.304021077230573" lon="6.434614900499582">
        <ele>38</ele>
        <time>2014-05-31T16:59:49Z</time>
      </trkpt>
      <trkpt lat="51.303427135571837" lon="6.433464232832193">
        <ele>37.899999999999999</ele>
        <time>2014-05-31T16:59:49Z</time>
      </trkpt>
      <trkpt lat="51.303211720660329" lon="6.431571934372187">
        <ele>40</ele>
        <time>2014-05-31T16:59:49Z</time>
      </trkpt>
      <trkpt lat="51.303130332380533" lon="6.429840568453074">
        <ele>39.399999999999999</ele>
        <time>2014-05-31T16:59:49Z</time>
      </trkpt>
      <trkpt lat="51.303116083145142" lon="6.428570626303554">
        <ele>39.5</ele>
        <time>2014-05-31T16:59:49Z</time>
      </trkpt>
      <trkpt lat="51.30310183390975" lon="6.42730051651597">
        <ele>37.5</ele>
        <time>2014-05-31T16:59:49Z</time>
      </trkpt>
      <trkpt lat="51.302562709897757" lon="6.426317486912012">
        <ele>37.899999999999999</ele>
        <time>2014-05-31T16:59:49Z</time>
      </trkpt>
      <trkpt lat="51.302130790427327" lon="6.425463203340769">
        <ele>37.899999999999999</ele>
        <time>2014-05-31T16:59:49Z</time>
      </trkpt>
      <trkpt lat="51.302654072642326" lon="6.423797635361552">
        <ele>38.399999999999999</ele>
        <time>2014-05-31T16:59:49Z</time>
      </trkpt>
      <trkpt lat="51.303782695904374" lon="6.419661669060588">
        <ele>37.200000000000003</ele>
        <time>2014-05-31T16:59:49Z</time>
      </trkpt>
      <trkpt lat="51.304282424971461" lon="6.416915338486433">
        <ele>35.299999999999997</ele>
        <time>2014-05-31T16:59:49Z</time>
      </trkpt>
      <trkpt lat="51.304656341671944" lon="6.414302699267864">
        <ele>37.5</ele>
        <time>2014-05-31T16:59:49Z</time>
      </trkpt>
      <trkpt lat="51.305157579481602" lon="6.41112151555717">
        <ele>41.799999999999997</ele>
        <time>2014-05-31T16:59:49Z</time>
      </trkpt>
      <trkpt lat="51.305846739560366" lon="6.407881239429116">
        <ele>39.5</ele>
        <time>2014-05-31T16:59:49Z</time>
      </trkpt>
      <trkpt lat="51.306965136900544" lon="6.405048659071326">
        <ele>33.5</ele>
        <time>2014-05-31T16:59:49Z</time>
      </trkpt>
      <trkpt lat="51.307676760479808" lon="6.403231462463737">
        <ele>33.799999999999997</ele>
        <time>2014-05-31T16:59:49Z</time>
      </trkpt>
      <trkpt lat="51.307382388040423" lon="6.400362923741341">
        <ele>32.700000000000003</ele>
        <time>2014-05-31T16:59:49Z</time>
      </trkpt>
      <trkpt lat="51.306350324302912" lon="6.398052284494042">
        <ele>37.700000000000003</ele>
        <time>2014-05-31T16:59:49Z</time>
      </trkpt>
      <trkpt lat="51.30582788027823" lon="6.395441070199013">
        <ele>36.600000000000001</ele>
        <time>2014-05-31T16:59:49Z</time>
      </trkpt>
      <trkpt lat="51.306643690913916" lon="6.393929729238153">
        <ele>34.5</ele>
        <time>2014-05-31T16:59:49Z</time>
      </trkpt>
      <trkpt lat="51.307432595640421" lon="6.39271879568696">
        <ele>36.600000000000001</ele>
        <time>2014-05-31T16:59:49Z</time>
      </trkpt>
      <trkpt lat="51.308708908036351" lon="6.391846910119057">
        <ele>35.5</ele>
        <time>2014-05-31T16:59:49Z</time>
      </trkpt>
      <trkpt lat="51.310087060555816" lon="6.39106722548604">
        <ele>36.399999999999999</ele>
        <time>2014-05-31T16:59:49Z</time>
      </trkpt>
      <trkpt lat="51.31146521307528" lon="6.39028737321496">
        <ele>36.299999999999997</ele>
        <time>2014-05-31T16:59:49Z</time>
      </trkpt>
      <trkpt lat="51.312843281775713" lon="6.389507688581944">
        <ele>36.799999999999997</ele>
        <time>2014-05-31T16:59:49Z</time>
      </trkpt>
      <trkpt lat="51.314221518114209" lon="6.388727920129895">
        <ele>37.399999999999999</ele>
        <time>2014-05-31T16:59:49Z</time>
      </trkpt>
      <trkpt lat="51.315586175769567" lon="6.387945469468832">
        <ele>37.100000000000001</ele>
        <time>2014-05-31T16:59:49Z</time>
      </trkpt>
      <trkpt lat="51.316950917243958" lon="6.387163018807769">
        <ele>37.399999999999999</ele>
        <time>2014-05-31T16:59:49Z</time>
      </trkpt>
      <trkpt lat="51.318302163854241" lon="6.386332288384438">
        <ele>38.100000000000001</ele>
        <time>2014-05-31T16:59:49Z</time>
      </trkpt>
      <trkpt lat="51.319653494283557" lon="6.385501641780138">
        <ele>36.899999999999999</ele>
        <time>2014-05-31T16:59:49Z</time>
      </trkpt>
      <trkpt lat="51.320753116160631" lon="6.383548574522138">
        <ele>36.5</ele>
        <time>2014-05-31T16:59:49Z</time>
      </trkpt>
      <trkpt lat="51.321852738037705" lon="6.381595591083169">
        <ele>37.399999999999999</ele>
        <time>2014-05-31T16:59:49Z</time>
      </trkpt>
      <trkpt lat="51.322992509230971" lon="6.380823198705912">
        <ele>37.5</ele>
        <time>2014-05-31T16:59:49Z</time>
      </trkpt>
      <trkpt lat="51.324132280424237" lon="6.380050722509623">
        <ele>37.399999999999999</ele>
        <time>2014-05-31T16:59:49Z</time>
      </trkpt>
      <trkpt lat="51.323609333485365" lon="6.377711920067668">
        <ele>34</ele>
        <time>2014-05-31T16:59:49Z</time>
      </trkpt>
      <trkpt lat="51.323086218908429" lon="6.375373117625713">
        <ele>35</ele>
        <time>2014-05-31T16:59:49Z</time>
      </trkpt>
      <trkpt lat="51.322563104331493" lon="6.373034315183759">
        <ele>32.799999999999997</ele>
        <time>2014-05-31T16:59:49Z</time>
      </trkpt>
      <trkpt lat="51.322039989754558" lon="6.370695428922772">
        <ele>32.600000000000001</ele>
        <time>2014-05-31T16:59:49Z</time>
      </trkpt>
      <trkpt lat="51.321671269834042" lon="6.368431560695171">
        <ele>34.399999999999999</ele>
        <time>2014-05-31T16:59:49Z</time>
      </trkpt>
      <trkpt lat="51.321302466094494" lon="6.366167776286602">
        <ele>33.399999999999999</ele>
        <time>2014-05-31T16:59:49Z</time>
      </trkpt>
      <trkpt lat="51.320933662354946" lon="6.363903991878033">
        <ele>32</ele>
        <time>2014-05-31T16:59:49Z</time>
      </trkpt>
      <trkpt lat="51.320564858615398" lon="6.361640207469463">
        <ele>34.5</ele>
        <time>2014-05-31T16:59:49Z</time>
      </trkpt>
      <trkpt lat="51.319046141579747" lon="6.361039392650127">
        <ele>36.700000000000003</ele>
        <time>2014-05-31T16:59:49Z</time>
      </trkpt>
      <trkpt lat="51.317527340725064" lon="6.36043849401176">
        <ele>33.5</ele>
        <time>2014-05-31T16:59:49Z</time>
      </trkpt>
      <trkpt lat="51.316169388592243" lon="6.359494272619486">
        <ele>38.899999999999999</ele>
        <time>2014-05-31T16:59:49Z</time>
      </trkpt>
      <trkpt lat="51.314811520278454" lon="6.358550135046244">
        <ele>36.299999999999997</ele>
        <time>2014-05-31T16:59:49Z</time>
      </trkpt>
      <trkpt lat="51.31407056003809" lon="6.35713392868638">
        <ele>38.200000000000003</ele>
        <time>2014-05-31T16:59:49Z</time>
      </trkpt>
      <trkpt lat="51.313329599797726" lon="6.355717638507485">
        <ele>37.100000000000001</ele>
        <time>2014-05-31T16:59:49Z</time>
      </trkpt>
      <trkpt lat="51.312588639557362" lon="6.354301432147622">
        <ele>35.299999999999997</ele>
        <time>2014-05-31T16:59:49Z</time>
      </trkpt>
      <trkpt lat="51.311847595497966" lon="6.352885058149695">
        <ele>36.5</ele>
        <time>2014-05-31T16:59:49Z</time>
      </trkpt>
      <trkpt lat="51.310942266136408" lon="6.352471997961402">
        <ele>36.5</ele>
        <time>2014-05-31T16:59:49Z</time>
      </trkpt>
      <trkpt lat="51.310037020593882" lon="6.352058770135045">
        <ele>37.5</ele>
        <time>2014-05-31T16:59:49Z</time>
      </trkpt>
      <trkpt lat="51.309225568547845" lon="6.351001979783177">
        <ele>39.399999999999999</ele>
        <time>2014-05-31T16:59:49Z</time>
      </trkpt>
      <trkpt lat="51.308414116501808" lon="6.349945105612278">
        <ele>39.600000000000001</ele>
        <time>2014-05-31T16:59:49Z</time>
      </trkpt>
      <trkpt lat="51.307495124638081" lon="6.348673906177282">
        <ele>41.5</ele>
        <time>2014-05-31T16:59:49Z</time>
      </trkpt>
      <trkpt lat="51.306576132774353" lon="6.347402622923255">
        <ele>43.299999999999997</ele>
        <time>2014-05-31T16:59:49Z</time>
      </trkpt>
      <trkpt lat="51.305657140910625" lon="6.346131423488259">
        <ele>42.600000000000001</ele>
        <time>2014-05-31T16:59:49Z</time>
      </trkpt>
      <trkpt lat="51.304737981408834" lon="6.344860140234232">
        <ele>43.399999999999999</ele>
        <time>2014-05-31T16:59:49Z</time>
      </trkpt>
      <trkpt lat="51.304000541567802" lon="6.34286449290812">
        <ele>47.5</ele>
        <time>2014-05-31T16:59:49Z</time>
      </trkpt>
      <trkpt lat="51.303263017907739" lon="6.340868761762977">
        <ele>47.700000000000003</ele>
        <time>2014-05-31T16:59:49Z</time>
      </trkpt>
      <trkpt lat="51.303987381979823" lon="6.338658705353737">
        <ele>51.5</ele>
        <time>2014-05-31T16:59:49Z</time>
      </trkpt>
      <trkpt lat="51.304711829870939" lon="6.336448481306434">
        <ele>52</ele>
        <time>2014-05-31T16:59:49Z</time>
      </trkpt>
      <trkpt lat="51.304966472089291" lon="6.333723189309239">
        <ele>55.600000000000001</ele>
        <time>2014-05-31T16:59:49Z</time>
      </trkpt>
      <trkpt lat="51.305221198126674" lon="6.330997813493013">
        <ele>58.399999999999999</ele>
        <time>2014-05-31T16:59:49Z</time>
      </trkpt>
      <trkpt lat="51.306079672649503" lon="6.329152369871736">
        <ele>63.700000000000003</ele>
        <time>2014-05-31T16:59:49Z</time>
      </trkpt>
      <trkpt lat="51.306508993729949" lon="6.327113974839449">
        <ele>68.599999999999994</ele>
        <time>2014-05-31T16:59:49Z</time>
      </trkpt>
      <trkpt lat="51.306938230991364" lon="6.325075495988131">
        <ele>73.599999999999994</ele>
        <time>2014-05-31T16:59:49Z</time>
      </trkpt>
      <trkpt lat="51.307676341384649" lon="6.323337759822607">
        <ele>77.299999999999997</ele>
        <time>2014-05-31T16:59:49Z</time>
      </trkpt>
      <trkpt lat="51.308414284139872" lon="6.321600023657084">
        <ele>82.700000000000003</ele>
        <time>2014-05-31T16:59:49Z</time>
      </trkpt>
      <trkpt lat="51.309460597112775" lon="6.320612970739603">
        <ele>83.799999999999997</ele>
        <time>2014-05-31T16:59:49Z</time>
      </trkpt>
      <trkpt lat="51.310506826266646" lon="6.319625917822123">
        <ele>82.700000000000003</ele>
        <time>2014-05-31T16:59:49Z</time>
      </trkpt>
      <trkpt lat="51.310023358091712" lon="6.317694811150432">
        <ele>84</ele>
        <time>2014-05-31T16:59:49Z</time>
      </trkpt>
      <trkpt lat="51.310184374451637" lon="6.315227178856731">
        <ele>81.799999999999997</ele>
        <time>2014-05-31T16:59:49Z</time>
      </trkpt>
      <trkpt lat="51.310345390811563" lon="6.312759462743998">
        <ele>79.900000000000006</ele>
        <time>2014-05-31T16:59:49Z</time>
      </trkpt>
      <trkpt lat="51.310627106577158" lon="6.310871271416545">
        <ele>70.900000000000006</ele>
        <time>2014-05-31T16:59:49Z</time>
      </trkpt>
      <trkpt lat="51.310908738523722" lon="6.308982996270061">
        <ele>64.700000000000003</ele>
        <time>2014-05-31T16:59:49Z</time>
      </trkpt>
      <trkpt lat="51.310948971658945" lon="6.306515196338296">
        <ele>58.5</ele>
        <time>2014-05-31T16:59:49Z</time>
      </trkpt>
      <trkpt lat="51.3109892886132" lon="6.3040473125875">
        <ele>55.5</ele>
        <time>2014-05-31T16:59:49Z</time>
      </trkpt>
      <trkpt lat="51.310895411297679" lon="6.301901461556554">
        <ele>53.799999999999997</ele>
        <time>2014-05-31T16:59:49Z</time>
      </trkpt>
      <trkpt lat="51.310801533982158" lon="6.29975569434464">
        <ele>55</ele>
        <time>2014-05-31T16:59:49Z</time>
      </trkpt>
      <trkpt lat="51.310382271185517" lon="6.29705211147666">
        <ele>55.5</ele>
        <time>2014-05-31T16:59:49Z</time>
      </trkpt>
      <trkpt lat="51.309698224067688" lon="6.29551243968308">
        <ele>56.100000000000001</ele>
        <time>2014-05-31T16:59:49Z</time>
      </trkpt>
      <trkpt lat="51.311388267204165" lon="6.29379590973258">
        <ele>57.700000000000003</ele>
        <time>2014-05-31T16:59:49Z</time>
      </trkpt>
      <trkpt lat="51.310308510437608" lon="6.291526760905981">
        <ele>55.700000000000003</ele>
        <time>2014-05-31T16:59:49Z</time>
      </trkpt>
      <trkpt lat="51.309923026710749" lon="6.29060416482389">
        <ele>57.100000000000001</ele>
        <time>2014-05-31T16:59:49Z</time>
      </trkpt>
      <trkpt lat="51.309373509138823" lon="6.288611283525825">
        <ele>57.799999999999997</ele>
        <time>2014-05-31T16:59:49Z</time>
      </trkpt>
      <trkpt lat="51.309011662378907" lon="6.286714961752296">
        <ele>55.899999999999999</ele>
        <time>2014-05-31T16:59:49Z</time>
      </trkpt>
      <trkpt lat="51.308582928031683" lon="6.284641614183784">
        <ele>56.700000000000003</ele>
        <time>2014-05-31T16:59:49Z</time>
      </trkpt>
      <trkpt lat="51.308133993297815" lon="6.282654097303748">
        <ele>54.299999999999997</ele>
        <time>2014-05-31T16:59:49Z</time>
      </trkpt>
      <trkpt lat="51.308357371017337" lon="6.2802804261446">
        <ele>54.5</ele>
        <time>2014-05-31T16:59:49Z</time>
      </trkpt>
      <trkpt lat="51.30821873433888" lon="6.277477517724037">
        <ele>51.5</ele>
        <time>2014-05-31T16:59:49Z</time>
      </trkpt>
      <trkpt lat="51.308167101815343" lon="6.275683119893074">
        <ele>49.700000000000003</ele>
        <time>2014-05-31T16:59:49Z</time>
      </trkpt>
      <trkpt lat="51.308020586147904" lon="6.275311633944511">
        <ele>49.600000000000001</ele>
        <time>2014-05-31T16:59:49Z</time>
      </trkpt>
      <trkpt lat="51.308336416259408" lon="6.273806160315871">
        <ele>47.600000000000001</ele>
        <time>2014-05-31T16:59:49Z</time>
      </trkpt>
      <trkpt lat="51.308792978525162" lon="6.272461703047156">
        <ele>46.100000000000001</ele>
        <time>2014-05-31T16:59:49Z</time>
      </trkpt>
      <trkpt lat="51.308219823986292" lon="6.271440200507641">
        <ele>44.700000000000003</ele>
        <time>2014-05-31T16:59:49Z</time>
      </trkpt>
      <trkpt lat="51.307686902582645" lon="6.270311325788498">
        <ele>44.700000000000003</ele>
        <time>2014-05-31T16:59:49Z</time>
      </trkpt>
      <trkpt lat="51.307583302259445" lon="6.268248958513141">
        <ele>45.700000000000003</ele>
        <time>2014-05-31T16:59:49Z</time>
      </trkpt>
      <trkpt lat="51.307479618117213" lon="6.266186675056815">
        <ele>46.899999999999999</ele>
        <time>2014-05-31T16:59:49Z</time>
      </trkpt>
      <trkpt lat="51.307507110759616" lon="6.263746619224548">
        <ele>43.5</ele>
        <time>2014-05-31T16:59:49Z</time>
      </trkpt>
      <trkpt lat="51.308205239474773" lon="6.261285021901131">
        <ele>42</ele>
        <time>2014-05-31T16:59:49Z</time>
      </trkpt>
      <trkpt lat="51.309178965166211" lon="6.25894739292562">
        <ele>41.5</ele>
        <time>2014-05-31T16:59:49Z</time>
      </trkpt>
      <trkpt lat="51.310242628678679" lon="6.258497536182404">
        <ele>43</ele>
        <time>2014-05-31T16:59:49Z</time>
      </trkpt>
      <trkpt lat="51.311143264174461" lon="6.259291805326939">
        <ele>45.5</ele>
        <time>2014-05-31T16:59:49Z</time>
      </trkpt>
      <trkpt lat="51.311566801741719" lon="6.259098770096898">
        <ele>45.399999999999999</ele>
        <time>2014-05-31T16:59:49Z</time>
      </trkpt>
      <trkpt lat="51.312125371769071" lon="6.258310284465551">
        <ele>42.799999999999997</ele>
        <time>2014-05-31T16:59:49Z</time>
      </trkpt>
      <trkpt lat="51.312523009255528" lon="6.257521798834205">
        <ele>41.600000000000001</ele>
        <time>2014-05-31T16:59:49Z</time>
      </trkpt>
      <trkpt lat="51.312759714201093" lon="6.256626024842262">
        <ele>43.799999999999997</ele>
        <time>2014-05-31T16:59:49Z</time>
      </trkpt>
      <trkpt lat="51.312969513237476" lon="6.255665794014931">
        <ele>42.600000000000001</ele>
        <time>2014-05-31T16:59:49Z</time>
      </trkpt>
      <trkpt lat="51.312551591545343" lon="6.254929527640343">
        <ele>41.299999999999997</ele>
        <time>2014-05-31T16:59:49Z</time>
      </trkpt>
      <trkpt lat="51.3119459990412" lon="6.254386380314827">
        <ele>40.299999999999997</ele>
        <time>2014-05-31T16:59:49Z</time>
      </trkpt>
      <trkpt lat="51.311451969668269" lon="6.253202771767974">
        <ele>40.899999999999999</ele>
        <time>2014-05-31T16:59:49Z</time>
      </trkpt>
      <trkpt lat="51.310850819572806" lon="6.252233907580376">
        <ele>42.100000000000001</ele>
        <time>2014-05-31T16:59:49Z</time>
      </trkpt>
      <trkpt lat="51.309907520189881" lon="6.251511722803116">
        <ele>42.299999999999997</ele>
        <time>2014-05-31T16:59:49Z</time>
      </trkpt>
      <trkpt lat="51.308937398716807" lon="6.250918284058571">
        <ele>42.399999999999999</ele>
        <time>2014-05-31T16:59:49Z</time>
      </trkpt>
      <trkpt lat="51.307954536750913" lon="6.250241026282311">
        <ele>43.100000000000001</ele>
        <time>2014-05-31T16:59:49Z</time>
      </trkpt>
      <trkpt lat="51.306529026478529" lon="6.249842718243599">
        <ele>42.399999999999999</ele>
        <time>2014-05-31T16:59:49Z</time>
      </trkpt>
      <trkpt lat="51.30535832606256" lon="6.249149283394218">
        <ele>43.5</ele>
        <time>2014-05-31T16:59:49Z</time>
      </trkpt>
      <trkpt lat="51.304241269826889" lon="6.248520389199257">
        <ele>42.299999999999997</ele>
        <time>2014-05-31T16:59:49Z</time>
      </trkpt>
      <trkpt lat="51.303459908813238" lon="6.249285489320755">
        <ele>42.899999999999999</ele>
        <time>2014-05-31T16:59:49Z</time>
      </trkpt>
      <trkpt lat="51.302638398483396" lon="6.249728724360466">
        <ele>45.299999999999997</ele>
        <time>2014-05-31T16:59:49Z</time>
      </trkpt>
      <trkpt lat="51.303384723141789" lon="6.250902526080608">
        <ele>45</ele>
        <time>2014-05-31T16:59:49Z</time>
      </trkpt>
      <trkpt lat="51.304016886278987" lon="6.251754378899932">
        <ele>41.700000000000003</ele>
        <time>2014-05-31T16:59:49Z</time>
      </trkpt>
      <trkpt lat="51.304478058591485" lon="6.252917535603046">
        <ele>41.600000000000001</ele>
        <time>2014-05-31T16:59:49Z</time>
      </trkpt>
      <trkpt lat="51.304789613932371" lon="6.25421010889113">
        <ele>40.799999999999997</ele>
        <time>2014-05-31T16:59:49Z</time>
      </trkpt>
      <trkpt lat="51.303825192153454" lon="6.255478709936142">
        <ele>43.600000000000001</ele>
        <time>2014-05-31T16:59:49Z</time>
      </trkpt>
      <trkpt lat="51.302793715149164" lon="6.256725769490004">
        <ele>42.200000000000003</ele>
        <time>2014-05-31T16:59:49Z</time>
      </trkpt>
      <trkpt lat="51.302530858665705" lon="6.258830968290567">
        <ele>42.899999999999999</ele>
        <time>2014-05-31T16:59:49Z</time>
      </trkpt>
      <trkpt lat="51.301905820146203" lon="6.26102208159864">
        <ele>43.299999999999997</ele>
        <time>2014-05-31T16:59:49Z</time>
      </trkpt>
      <trkpt lat="51.302630435675383" lon="6.263391226530075">
        <ele>43.700000000000003</ele>
        <time>2014-05-31T16:59:49Z</time>
      </trkpt>
      <trkpt lat="51.303099067881703" lon="6.265970505774021">
        <ele>43.899999999999999</ele>
        <time>2014-05-31T16:59:49Z</time>
      </trkpt>
      <trkpt lat="51.303567867726088" lon="6.268378123641014">
        <ele>44.399999999999999</ele>
        <time>2014-05-31T16:59:49Z</time>
      </trkpt>
      <trkpt lat="51.302242269739509" lon="6.269181780517101">
        <ele>46.100000000000001</ele>
        <time>2014-05-31T16:59:49Z</time>
      </trkpt>
      <trkpt lat="51.300536384806037" lon="6.270838882774115">
        <ele>49.100000000000001</ele>
        <time>2014-05-31T16:59:49Z</time>
      </trkpt>
      <trkpt lat="51.299790814518929" lon="6.272847605869174">
        <ele>50.399999999999999</ele>
        <time>2014-05-31T16:59:49Z</time>
      </trkpt>
      <trkpt lat="51.299783103168011" lon="6.275349771603942">
        <ele>50.299999999999997</ele>
        <time>2014-05-31T16:59:49Z</time>
      </trkpt>
      <trkpt lat="51.298610391095281" lon="6.275360081344843">
        <ele>50</ele>
        <time>2014-05-31T16:59:49Z</time>
      </trkpt>
      <trkpt lat="51.297437679022551" lon="6.275370307266712">
        <ele>50.200000000000003</ele>
        <time>2014-05-31T16:59:49Z</time>
      </trkpt>
      <trkpt lat="51.295748390257359" lon="6.275938432663679">
        <ele>52.100000000000001</ele>
        <time>2014-05-31T16:59:49Z</time>
      </trkpt>
      <trkpt lat="51.294059185311198" lon="6.276506474241614">
        <ele>51.600000000000001</ele>
        <time>2014-05-31T16:59:49Z</time>
      </trkpt>
      <trkpt lat="51.292774407193065" lon="6.277005532756448">
        <ele>52.5</ele>
        <time>2014-05-31T16:59:49Z</time>
      </trkpt>
      <trkpt lat="51.291489712893963" lon="6.277504423633218">
        <ele>54.299999999999997</ele>
        <time>2014-05-31T16:59:49Z</time>
      </trkpt>
      <trkpt lat="51.290278108790517" lon="6.278625503182411">
        <ele>53.5</ele>
        <time>2014-05-31T17:11:27Z</time>
      </trkpt>
      <trkpt lat="51.289066588506103" lon="6.279553379863501">
        <ele>50.799999999999997</ele>
        <time>2014-05-31T17:23:04Z</time>
      </trkpt>
      <trkpt lat="51.288040392100811" lon="6.279917825013399">
        <ele>47.799999999999997</ele>
        <time>2014-05-31T17:35:07Z</time>
      </trkpt>
      <trkpt lat="51.287671504542232" lon="6.280271708965302">
        <ele>47</ele>
        <time>2014-05-31T17:39:08Z</time>
      </trkpt>
      <trkpt lat="51.286678416654468" lon="6.278876960277557">
        <ele>47.200000000000003</ele>
        <time>2014-05-31T17:39:49Z</time>
      </trkpt>
      <trkpt lat="51.286007361486554" lon="6.277997195720673">
        <ele>47.399999999999999</ele>
        <time>2014-05-31T17:40:31Z</time>
      </trkpt>
      <trkpt lat="51.285336390137672" lon="6.277117431163788">
        <ele>49.200000000000003</ele>
        <time>2014-05-31T17:41:13Z</time>
      </trkpt>
      <trkpt lat="51.284665334969759" lon="6.276237582787871">
        <ele>51.799999999999997</ele>
        <time>2014-05-31T17:41:55Z</time>
      </trkpt>
      <trkpt lat="51.284014396369457" lon="6.275658309459686">
        <ele>54.100000000000001</ele>
        <time>2014-05-31T17:42:43Z</time>
      </trkpt>
      <trkpt lat="51.283363541588187" lon="6.275078868493438">
        <ele>54.799999999999997</ele>
        <time>2014-05-31T17:43:30Z</time>
      </trkpt>
      <trkpt lat="51.282712519168854" lon="6.274499595165253">
        <ele>53.100000000000001</ele>
        <time>2014-05-31T17:44:17Z</time>
      </trkpt>
      <trkpt lat="51.282061580568552" lon="6.273920238018036">
        <ele>52.399999999999999</ele>
        <time>2014-05-31T17:45:04Z</time>
      </trkpt>
      <trkpt lat="51.280961288139224" lon="6.273620165884495">
        <ele>50.100000000000001</ele>
        <time>2014-05-31T17:45:36Z</time>
      </trkpt>
      <trkpt lat="51.279860911890864" lon="6.273320093750954">
        <ele>48.299999999999997</ele>
        <time>2014-05-31T17:46:08Z</time>
      </trkpt>
      <trkpt lat="51.278142789378762" lon="6.272912481799722">
        <ele>48.600000000000001</ele>
        <time>2014-05-31T17:46:42Z</time>
      </trkpt>
      <trkpt lat="51.277283728122711" lon="6.272708717733622">
        <ele>49.100000000000001</ele>
        <time>2014-05-31T17:47:00Z</time>
      </trkpt>
      <trkpt lat="51.276424583047628" lon="6.272504786029458">
        <ele>49.799999999999997</ele>
        <time>2014-05-31T17:47:17Z</time>
      </trkpt>
      <trkpt lat="51.27487426623702" lon="6.272247293964028">
        <ele>50</ele>
        <time>2014-05-31T17:47:38Z</time>
      </trkpt>
      <trkpt lat="51.273323865607381" lon="6.271989718079567">
        <ele>50.899999999999999</ele>
        <time>2014-05-31T17:47:59Z</time>
      </trkpt>
      <trkpt lat="51.271773464977741" lon="6.271732226014137">
        <ele>50.700000000000003</ele>
        <time>2014-05-31T17:48:21Z</time>
      </trkpt>
      <trkpt lat="51.270223064348102" lon="6.271474566310644">
        <ele>52.200000000000003</ele>
        <time>2014-05-31T17:48:42Z</time>
      </trkpt>
      <trkpt lat="51.269598864018917" lon="6.271195700392127">
        <ele>51.5</ele>
        <time>2014-05-31T17:49:10Z</time>
      </trkpt>
      <trkpt lat="51.268974579870701" lon="6.270916666835547">
        <ele>50.299999999999997</ele>
        <time>2014-05-31T17:49:37Z</time>
      </trkpt>
      <trkpt lat="51.269074911251664" lon="6.269908491522074">
        <ele>48.799999999999997</ele>
        <time>2014-05-31T17:51:15Z</time>
      </trkpt>
      <trkpt lat="51.268557831645012" lon="6.268685823306441">
        <ele>52</ele>
        <time>2014-05-31T17:52:52Z</time>
      </trkpt>
      <trkpt lat="51.267759120091796" lon="6.267709415405989">
        <ele>50.299999999999997</ele>
        <time>2014-05-31T17:54:15Z</time>
      </trkpt>
      <trkpt lat="51.26696040853858" lon="6.266733007505536">
        <ele>46.899999999999999</ele>
        <time>2014-05-31T17:55:37Z</time>
      </trkpt>
      <trkpt lat="51.266134874895215" lon="6.2659284286201">
        <ele>48.600000000000001</ele>
        <time>2014-05-31T17:57:00Z</time>
      </trkpt>
      <trkpt lat="51.26530934125185" lon="6.265123682096601">
        <ele>49.700000000000003</ele>
        <time>2014-05-31T17:58:22Z</time>
      </trkpt>
      <trkpt lat="51.264262022450566" lon="6.264050798490644">
        <ele>48.799999999999997</ele>
        <time>2014-05-31T18:00:56Z</time>
      </trkpt>
      <trkpt lat="51.263335570693016" lon="6.263020914047957">
        <ele>53.600000000000001</ele>
        <time>2014-05-31T18:02:14Z</time>
      </trkpt>
      <trkpt lat="51.262409202754498" lon="6.261990861967206">
        <ele>61</ele>
        <time>2014-05-31T18:03:31Z</time>
      </trkpt>
      <trkpt lat="51.261618621647358" lon="6.26118628308177">
        <ele>58</ele>
        <time>2014-05-31T18:03:42Z</time>
      </trkpt>
      <trkpt lat="51.260828040540218" lon="6.260381620377302">
        <ele>58.700000000000003</ele>
        <time>2014-05-31T18:03:53Z</time>
      </trkpt>
      <trkpt lat="51.259923381730914" lon="6.25969497486949">
        <ele>55.299999999999997</ele>
        <time>2014-05-31T18:04:04Z</time>
      </trkpt>
      <trkpt lat="51.25901872292161" lon="6.259008413180709">
        <ele>53.5</ele>
        <time>2014-05-31T18:04:15Z</time>
      </trkpt>
      <trkpt lat="51.258296873420477" lon="6.258493261411786">
        <ele>51.399999999999999</ele>
        <time>2014-05-31T18:04:37Z</time>
      </trkpt>
      <trkpt lat="51.2571990955621" lon="6.258536176756024">
        <ele>50.100000000000001</ele>
        <time>2014-05-31T18:04:59Z</time>
      </trkpt>
      <trkpt lat="51.256326287984848" lon="6.259008329361677">
        <ele>52.200000000000003</ele>
        <time>2014-05-31T18:05:44Z</time>
      </trkpt>
      <trkpt lat="51.25558759085834" lon="6.259973840788007">
        <ele>52.5</ele>
        <time>2014-05-31T18:06:28Z</time>
      </trkpt>
      <trkpt lat="51.254788460209966" lon="6.261229114606977">
        <ele>53.5</ele>
        <time>2014-05-31T18:06:51Z</time>
      </trkpt>
      <trkpt lat="51.254254700616002" lon="6.262017600238323">
        <ele>53.5</ele>
        <time>2014-05-31T18:07:02Z</time>
      </trkpt>
      <trkpt lat="51.253720773383975" lon="6.26280608586967">
        <ele>53</ele>
        <time>2014-05-31T18:07:13Z</time>
      </trkpt>
      <trkpt lat="51.253243926912546" lon="6.262730984017253">
        <ele>52.600000000000001</ele>
        <time>2014-05-31T18:07:36Z</time>
      </trkpt>
      <trkpt lat="51.252256790176034" lon="6.262462679296732">
        <ele>54.399999999999999</ele>
        <time>2014-05-31T18:07:59Z</time>
      </trkpt>
      <trkpt lat="51.251437459141016" lon="6.262199822813273">
        <ele>55.899999999999999</ele>
        <time>2014-05-31T17:57:05Z</time>
      </trkpt>
      <trkpt lat="51.250591389834881" lon="6.261700931936503">
        <ele>55.799999999999997</ele>
        <time>2014-05-31T17:46:11Z</time>
      </trkpt>
      <trkpt lat="51.24957743100822" lon="6.260955277830362">
        <ele>56.899999999999999</ele>
        <time>2014-05-31T17:35:18Z</time>
      </trkpt>
      <trkpt lat="51.248734630644321" lon="6.260625366121531">
        <ele>56.600000000000001</ele>
        <time>2014-05-31T17:29:51Z</time>
      </trkpt>
      <trkpt lat="51.247891914099455" lon="6.260295538231731">
        <ele>56.5</ele>
        <time>2014-05-31T17:24:24Z</time>
      </trkpt>
      <trkpt lat="51.246824059635401" lon="6.259383503347635">
        <ele>57.299999999999997</ele>
        <time>2014-05-31T17:28:50Z</time>
      </trkpt>
      <trkpt lat="51.245688982307911" lon="6.257570162415505">
        <ele>55.899999999999999</ele>
        <time>2014-05-31T17:33:16Z</time>
      </trkpt>
      <trkpt lat="51.245054388418794" lon="6.256352523341775">
        <ele>56.100000000000001</ele>
        <time>2014-05-31T17:35:29Z</time>
      </trkpt>
      <trkpt lat="51.244419794529676" lon="6.255134800449014">
        <ele>54.700000000000003</ele>
        <time>2014-05-31T17:37:42Z</time>
      </trkpt>
      <trkpt lat="51.243429221212864" lon="6.253412906080484">
        <ele>54.5</ele>
        <time>2014-05-31T17:39:55Z</time>
      </trkpt>
      <trkpt lat="51.242425320670009" lon="6.252441862598062">
        <ele>53.799999999999997</ele>
        <time>2014-05-31T17:42:09Z</time>
      </trkpt>
      <trkpt lat="51.241658376529813" lon="6.252238769084215">
        <ele>56.200000000000003</ele>
        <time>2014-05-31T17:43:19Z</time>
      </trkpt>
      <trkpt lat="51.240891432389617" lon="6.252035591751337">
        <ele>57.299999999999997</ele>
        <time>2014-05-31T17:44:30Z</time>
      </trkpt>
      <trkpt lat="51.239963304251432" lon="6.251811040565372">
        <ele>57.5</ele>
        <time>2014-05-31T17:45:41Z</time>
      </trkpt>
      <trkpt lat="51.239035092294216" lon="6.251586321741343">
        <ele>57.600000000000001</ele>
        <time>2014-05-31T17:46:51Z</time>
      </trkpt>
      <trkpt lat="51.238006968051195" lon="6.251087598502636">
        <ele>57.799999999999997</ele>
        <time>2014-05-31T17:47:09Z</time>
      </trkpt>
      <trkpt lat="51.236978927627206" lon="6.250588875263929">
        <ele>58.5</ele>
        <time>2014-05-31T17:47:27Z</time>
      </trkpt>
      <trkpt lat="51.237176908180118" lon="6.249105697497726">
        <ele>56.899999999999999</ele>
        <time>2014-05-31T17:47:35Z</time>
      </trkpt>
      <trkpt lat="51.237374888733029" lon="6.247622519731522">
        <ele>52.299999999999997</ele>
        <time>2014-05-31T17:47:44Z</time>
      </trkpt>
      <trkpt lat="51.237176572903991" lon="6.246117884293199">
        <ele>51.299999999999997</ele>
        <time>2014-05-31T17:47:53Z</time>
      </trkpt>
      <trkpt lat="51.236978424713016" lon="6.244613332673907">
        <ele>50</ele>
        <time>2014-05-31T17:48:02Z</time>
      </trkpt>
      <trkpt lat="51.236453801393509" lon="6.243208106607199">
        <ele>50.399999999999999</ele>
        <time>2014-05-31T17:48:37Z</time>
      </trkpt>
      <trkpt lat="51.235929178074002" lon="6.241802964359522">
        <ele>49.399999999999999</ele>
        <time>2014-05-31T17:49:13Z</time>
      </trkpt>
      <trkpt lat="51.235344205051661" lon="6.240435373038054">
        <ele>46.799999999999997</ele>
        <time>2014-05-31T17:49:48Z</time>
      </trkpt>
      <trkpt lat="51.234759064391255" lon="6.239067781716585">
        <ele>46.5</ele>
        <time>2014-05-31T17:50:23Z</time>
      </trkpt>
      <trkpt lat="51.234059929847717" lon="6.237024273723364">
        <ele>48.799999999999997</ele>
        <time>2014-05-31T17:50:59Z</time>
      </trkpt>
      <trkpt lat="51.233273623511195" lon="6.234103599563241">
        <ele>51.399999999999999</ele>
        <time>2014-05-31T17:51:16Z</time>
      </trkpt>
      <trkpt lat="51.232835166156292" lon="6.232193196192384">
        <ele>52.5</ele>
        <time>2014-05-31T17:51:21Z</time>
      </trkpt>
      <trkpt lat="51.23239679262042" lon="6.230282876640558">
        <ele>54.399999999999999</ele>
        <time>2014-05-31T17:51:25Z</time>
      </trkpt>
      <trkpt lat="51.232338789850473" lon="6.227900739759207">
        <ele>54.399999999999999</ele>
        <time>2014-05-31T17:51:27Z</time>
      </trkpt>
      <trkpt lat="51.232280787080526" lon="6.225518602877855">
        <ele>53.899999999999999</ele>
        <time>2014-05-31T17:51:30Z</time>
      </trkpt>
      <trkpt lat="51.231994377449155" lon="6.22422007843852">
        <ele>51.600000000000001</ele>
        <time>2014-05-31T17:51:32Z</time>
      </trkpt>
      <trkpt lat="51.231707967817783" lon="6.222921637818217">
        <ele>50</ele>
        <time>2014-05-31T17:51:34Z</time>
      </trkpt>
      <trkpt lat="51.231293315067887" lon="6.222179001197219">
        <ele>47.899999999999999</ele>
        <time>2014-05-31T17:52:09Z</time>
      </trkpt>
      <trkpt lat="51.230878662317991" lon="6.221436280757189">
        <ele>45.600000000000001</ele>
        <time>2014-05-31T17:52:45Z</time>
      </trkpt>
      <trkpt lat="51.230271561071277" lon="6.220871927216649">
        <ele>46.299999999999997</ele>
        <time>2014-05-31T17:53:02Z</time>
      </trkpt>
      <trkpt lat="51.229664627462626" lon="6.220307489857078">
        <ele>45.399999999999999</ele>
        <time>2014-05-31T17:53:20Z</time>
      </trkpt>
      <trkpt lat="51.228376580402255" lon="6.218856666237116">
        <ele>45.100000000000001</ele>
        <time>2014-05-31T17:53:55Z</time>
      </trkpt>
      <trkpt lat="51.228115735575557" lon="6.219493858516216">
        <ele>45.5</ele>
        <time>2014-05-31T17:54:13Z</time>
      </trkpt>
      <trkpt lat="51.228120094165206" lon="6.218253588303924">
        <ele>44.600000000000001</ele>
        <time>2014-05-31T17:54:31Z</time>
      </trkpt>
      <trkpt lat="51.227581305429339" lon="6.215869439765811">
        <ele>44.600000000000001</ele>
        <time>2014-05-31T17:55:06Z</time>
      </trkpt>
      <trkpt lat="51.227222979068756" lon="6.213894076645374">
        <ele>46.200000000000003</ele>
        <time>2014-05-31T17:55:24Z</time>
      </trkpt>
      <trkpt lat="51.226864736527205" lon="6.211918797343969">
        <ele>49.100000000000001</ele>
        <time>2014-05-31T17:55:41Z</time>
      </trkpt>
      <trkpt lat="51.226412281394005" lon="6.210050890222192">
        <ele>52.799999999999997</ele>
        <time>2014-05-31T17:55:59Z</time>
      </trkpt>
      <trkpt lat="51.225959910079837" lon="6.208182899281383">
        <ele>57.200000000000003</ele>
        <time>2014-05-31T17:56:17Z</time>
      </trkpt>
      <trkpt lat="51.225337386131287" lon="6.206077700480819">
        <ele>59.600000000000001</ele>
        <time>2014-05-31T17:56:52Z</time>
      </trkpt>
      <trkpt lat="51.2247150298208" lon="6.203972501680255">
        <ele>60.200000000000003</ele>
        <time>2014-05-31T17:57:27Z</time>
      </trkpt>
      <trkpt lat="51.224246984347701" lon="6.202586218714714">
        <ele>63.299999999999997</ele>
        <time>2014-05-31T17:58:03Z</time>
      </trkpt>
      <trkpt lat="51.223779106512666" lon="6.20119976811111">
        <ele>62.5</ele>
        <time>2014-05-31T17:58:38Z</time>
      </trkpt>
      <trkpt lat="51.22288660146296" lon="6.202732818201184">
        <ele>62</ele>
        <time>2014-05-31T17:58:56Z</time>
      </trkpt>
      <trkpt lat="51.221994096413255" lon="6.204265868291259">
        <ele>62</ele>
        <time>2014-05-31T17:59:13Z</time>
      </trkpt>
      <trkpt lat="51.221249531954527" lon="6.205305391922593">
        <ele>62</ele>
        <time>2014-05-31T17:59:31Z</time>
      </trkpt>
      <trkpt lat="51.220504883676767" lon="6.206344915553927">
        <ele>61.700000000000003</ele>
        <time>2014-05-31T17:59:49Z</time>
      </trkpt>
      <trkpt lat="51.220606891438365" lon="6.206665690988302">
        <ele>61.5</ele>
        <time>2014-05-31T18:00:06Z</time>
      </trkpt>
      <trkpt lat="51.220534304156899" lon="6.207136586308479">
        <ele>60.799999999999997</ele>
        <time>2014-05-31T18:00:24Z</time>
      </trkpt>
      <trkpt lat="51.219851598143578" lon="6.207928089424968">
        <ele>60.799999999999997</ele>
        <time>2014-05-31T18:00:59Z</time>
      </trkpt>
      <trkpt lat="51.219340804964304" lon="6.208523539826274">
        <ele>60.600000000000001</ele>
        <time>2014-05-31T18:06:19Z</time>
      </trkpt>
      <trkpt lat="51.21883001178503" lon="6.209118906408548">
        <ele>61.799999999999997</ele>
        <time>2014-05-31T18:11:39Z</time>
      </trkpt>
      <trkpt lat="51.218137834221125" lon="6.209969082847238">
        <ele>62</ele>
        <time>2014-05-31T18:14:19Z</time>
      </trkpt>
      <trkpt lat="51.217445572838187" lon="6.210819259285927">
        <ele>62.5</ele>
        <time>2014-05-31T18:16:59Z</time>
      </trkpt>
      <trkpt lat="51.217615222558379" lon="6.211804300546646">
        <ele>61.299999999999997</ele>
        <time>2014-05-31T18:17:39Z</time>
      </trkpt>
      <trkpt lat="51.216940730810165" lon="6.21220026165247">
        <ele>60.399999999999999</ele>
        <time>2014-05-31T18:17:59Z</time>
      </trkpt>
      <trkpt lat="51.216266071423888" lon="6.212596306577325">
        <ele>58.200000000000003</ele>
        <time>2014-05-31T18:18:19Z</time>
      </trkpt>
      <trkpt lat="51.21543450281024" lon="6.212916076183319">
        <ele>56.5</ele>
        <time>2014-05-31T18:18:59Z</time>
      </trkpt>
      <trkpt lat="51.214602766558528" lon="6.213236013427377">
        <ele>57</ele>
        <time>2014-05-31T18:19:39Z</time>
      </trkpt>
      <trkpt lat="51.213864404708147" lon="6.213487135246396">
        <ele>57.799999999999997</ele>
        <time>2014-05-31T18:19:59Z</time>
      </trkpt>
      <trkpt lat="51.213125875219703" lon="6.213738173246384">
        <ele>58.5</ele>
        <time>2014-05-31T18:20:19Z</time>
      </trkpt>
      <trkpt lat="51.2131277192384" lon="6.214476535096765">
        <ele>57.299999999999997</ele>
        <time>2014-05-31T18:20:59Z</time>
      </trkpt>
      <trkpt lat="51.213457882404327" lon="6.215789811685681">
        <ele>55.399999999999999</ele>
        <time>2014-05-31T18:21:19Z</time>
      </trkpt>
      <trkpt lat="51.213787961751223" lon="6.217103004455566">
        <ele>53.399999999999999</ele>
        <time>2014-05-31T18:21:39Z</time>
      </trkpt>
      <trkpt lat="51.214252570644021" lon="6.218727417290211">
        <ele>50.600000000000001</ele>
        <time>2014-05-31T18:21:59Z</time>
      </trkpt>
      <trkpt lat="51.214717179536819" lon="6.220351830124855">
        <ele>48.299999999999997</ele>
        <time>2014-05-31T18:22:19Z</time>
      </trkpt>
      <trkpt lat="51.214626235887408" lon="6.220939233899117">
        <ele>47.399999999999999</ele>
        <time>2014-05-31T18:24:25Z</time>
      </trkpt>
      <trkpt lat="51.214261623099446" lon="6.222691889852285">
        <ele>46</ele>
        <time>2014-05-31T18:25:27Z</time>
      </trkpt>
      <trkpt lat="51.214021984487772" lon="6.224415963515639">
        <ele>46.200000000000003</ele>
        <time>2014-05-31T18:25:59Z</time>
      </trkpt>
      <trkpt lat="51.214138828217983" lon="6.226000478491187">
        <ele>48.5</ele>
        <time>2014-05-31T18:26:30Z</time>
      </trkpt>
      <trkpt lat="51.214323565363884" lon="6.227907529100776">
        <ele>56.200000000000003</ele>
        <time>2014-05-31T18:28:36Z</time>
      </trkpt>
      <trkpt lat="51.214757077395916" lon="6.22988959774375">
        <ele>57.299999999999997</ele>
        <time>2014-05-31T18:30:41Z</time>
      </trkpt>
      <trkpt lat="51.215230990201235" lon="6.231839479878545">
        <ele>58.799999999999997</ele>
        <time>2014-05-31T18:32:46Z</time>
      </trkpt>
      <trkpt lat="51.215725103393197" lon="6.233939733356237">
        <ele>59.5</ele>
        <time>2014-05-31T18:34:52Z</time>
      </trkpt>
      <trkpt lat="51.215952001512051" lon="6.236126990988851">
        <ele>59.600000000000001</ele>
        <time>2014-05-31T18:35:54Z</time>
      </trkpt>
      <trkpt lat="51.216151993721724" lon="6.238110568374395">
        <ele>60.399999999999999</ele>
        <time>2014-05-31T18:36:57Z</time>
      </trkpt>
      <trkpt lat="51.216674605384469" lon="6.240169163793325">
        <ele>59.700000000000003</ele>
        <time>2014-05-31T18:38:00Z</time>
      </trkpt>
      <trkpt lat="51.217371895909309" lon="6.241991724818945">
        <ele>58.200000000000003</ele>
        <time>2014-05-31T18:39:03Z</time>
      </trkpt>
      <trkpt lat="51.218154765665531" lon="6.243968429043889">
        <ele>55.700000000000003</ele>
        <time>2014-05-31T18:40:40Z</time>
      </trkpt>
      <trkpt lat="51.218609986826777" lon="6.245112391188741">
        <ele>54</ele>
        <time>2014-05-31T18:41:29Z</time>
      </trkpt>
      <trkpt lat="51.219065291807055" lon="6.246256269514561">
        <ele>52.600000000000001</ele>
        <time>2014-05-31T18:42:18Z</time>
      </trkpt>
      <trkpt lat="51.219166126102209" lon="6.246476210653782">
        <ele>52.5</ele>
        <time>2014-05-31T18:45:33Z</time>
      </trkpt>
      <trkpt lat="51.218816600739956" lon="6.246736384928227">
        <ele>52.299999999999997</ele>
        <time>2014-05-31T18:49:24Z</time>
      </trkpt>
      <trkpt lat="51.218337826430798" lon="6.247254805639386">
        <ele>51.799999999999997</ele>
        <time>2014-05-31T18:50:22Z</time>
      </trkpt>
      <trkpt lat="51.217858968302608" lon="6.247773058712483">
        <ele>52.200000000000003</ele>
        <time>2014-05-31T18:51:19Z</time>
      </trkpt>
      <trkpt lat="51.217440711334348" lon="6.248489962890744">
        <ele>52.799999999999997</ele>
        <time>2014-05-31T18:52:17Z</time>
      </trkpt>
      <trkpt lat="51.217022370547056" lon="6.249206783249974">
        <ele>54.700000000000003</ele>
        <time>2014-05-31T18:53:15Z</time>
      </trkpt>
      <trkpt lat="51.216309992596507" lon="6.250985087826848">
        <ele>55.5</ele>
        <time>2014-05-31T18:57:05Z</time>
      </trkpt>
      <trkpt lat="51.216009333729744" lon="6.252148495987058">
        <ele>55.299999999999997</ele>
        <time>2014-05-31T18:58:03Z</time>
      </trkpt>
      <trkpt lat="51.215708507224917" lon="6.253311987966299">
        <ele>53.700000000000003</ele>
        <time>2014-05-31T18:59:01Z</time>
      </trkpt>
      <trkpt lat="51.215387564152479" lon="6.254266183823347">
        <ele>53.399999999999999</ele>
        <time>2014-05-31T18:59:58Z</time>
      </trkpt>
      <trkpt lat="51.215066704899073" lon="6.255220379680395">
        <ele>53.700000000000003</ele>
        <time>2014-05-31T19:00:56Z</time>
      </trkpt>
      <trkpt lat="51.214550882577896" lon="6.256485125049949">
        <ele>55.600000000000001</ele>
        <time>2014-05-31T19:02:51Z</time>
      </trkpt>
      <trkpt lat="51.214035227894783" lon="6.257749786600471">
        <ele>56.700000000000003</ele>
        <time>2014-05-31T19:04:47Z</time>
      </trkpt>
      <trkpt lat="51.213648738339543" lon="6.259109666571021">
        <ele>57.700000000000003</ele>
        <time>2014-05-31T19:08:37Z</time>
      </trkpt>
      <trkpt lat="51.213322933763266" lon="6.260823681950569">
        <ele>58.5</ele>
        <time>2014-05-31T19:12:28Z</time>
      </trkpt>
      <trkpt lat="51.212909705936909" lon="6.262355223298073">
        <ele>56.700000000000003</ele>
        <time>2014-05-31T19:16:19Z</time>
      </trkpt>
      <trkpt lat="51.212654979899526" lon="6.263265917077661">
        <ele>55.700000000000003</ele>
        <time>2014-05-31T19:18:14Z</time>
      </trkpt>
      <trkpt lat="51.21244702488184" lon="6.264102011919022">
        <ele>55.5</ele>
        <time>2014-05-31T19:19:12Z</time>
      </trkpt>
      <trkpt lat="51.21223890222609" lon="6.264938190579414">
        <ele>56.100000000000001</ele>
        <time>2014-05-31T19:20:09Z</time>
      </trkpt>
      <trkpt lat="51.211909996345639" lon="6.266090869903565">
        <ele>57.299999999999997</ele>
        <time>2014-05-31T19:21:07Z</time>
      </trkpt>
      <trkpt lat="51.211581090465188" lon="6.267243633046746">
        <ele>57.299999999999997</ele>
        <time>2014-05-31T19:22:05Z</time>
      </trkpt>
      <trkpt lat="51.21122837997973" lon="6.268712813034654">
        <ele>57.700000000000003</ele>
        <time>2014-05-31T19:23:02Z</time>
      </trkpt>
      <trkpt lat="51.210316093638539" lon="6.269710175693035">
        <ele>58.200000000000003</ele>
        <time>2014-05-31T19:23:31Z</time>
      </trkpt>
      <trkpt lat="51.209893561899662" lon="6.271072570234537">
        <ele>59</ele>
        <time>2014-05-31T19:23:46Z</time>
      </trkpt>
      <trkpt lat="51.209621904417872" lon="6.273347083479166">
        <ele>57.100000000000001</ele>
        <time>2014-05-31T19:23:53Z</time>
      </trkpt>
      <trkpt lat="51.209445800632238" lon="6.274339500814676">
        <ele>57.600000000000001</ele>
        <time>2014-05-31T19:23:56Z</time>
      </trkpt>
      <trkpt lat="51.208839537575841" lon="6.275374833494425">
        <ele>58.799999999999997</ele>
        <time>2014-05-31T19:24:00Z</time>
      </trkpt>
      <trkpt lat="51.208135290071368" lon="6.276530781760812">
        <ele>59.899999999999999</ele>
        <time>2014-05-31T19:27:51Z</time>
      </trkpt>
      <trkpt lat="51.207518465816975" lon="6.277161184698343">
        <ele>59.899999999999999</ele>
        <time>2014-05-31T19:31:41Z</time>
      </trkpt>
      <trkpt lat="51.207742178812623" lon="6.277779517695308">
        <ele>58.799999999999997</ele>
        <time>2014-05-31T20:25:07Z</time>
      </trkpt>
      <trkpt lat="51.208072593435645" lon="6.278785681352019">
        <ele>57</ele>
        <time>2014-05-31T20:25:50Z</time>
      </trkpt>
      <trkpt lat="51.208403008058667" lon="6.279791761189699">
        <ele>57.799999999999997</ele>
        <time>2014-05-31T20:26:34Z</time>
      </trkpt>
      <trkpt lat="51.208733422681689" lon="6.280798008665443">
        <ele>60.399999999999999</ele>
        <time>2014-05-31T20:27:18Z</time>
      </trkpt>
      <trkpt lat="51.209063837304711" lon="6.281804088503122">
        <ele>58.899999999999999</ele>
        <time>2014-05-31T20:28:02Z</time>
      </trkpt>
      <trkpt lat="51.209637327119708" lon="6.283601922914386">
        <ele>60.5</ele>
        <time>2014-05-31T20:29:30Z</time>
      </trkpt>
      <trkpt lat="51.210103193297982" lon="6.285463962703943">
        <ele>62.299999999999997</ele>
        <time>2014-05-31T20:30:58Z</time>
      </trkpt>
      <trkpt lat="51.210300335660577" lon="6.286907661706209">
        <ele>63.299999999999997</ele>
        <time>2014-05-31T20:32:26Z</time>
      </trkpt>
      <trkpt lat="51.210497310385108" lon="6.288351360708475">
        <ele>64.099999999999994</ele>
        <time>2014-05-31T20:33:53Z</time>
      </trkpt>
      <trkpt lat="51.210384741425514" lon="6.289955405518413">
        <ele>63</ele>
        <time>2014-05-31T20:39:45Z</time>
      </trkpt>
      <trkpt lat="51.210272088646889" lon="6.291559282690287">
        <ele>63.700000000000003</ele>
        <time>2014-05-31T20:45:36Z</time>
      </trkpt>
      <trkpt lat="51.210065390914679" lon="6.29277708940208">
        <ele>64.599999999999994</ele>
        <time>2014-05-31T20:51:27Z</time>
      </trkpt>
      <trkpt lat="51.209858693182468" lon="6.293994812294841">
        <ele>66.599999999999994</ele>
        <time>2014-05-31T20:57:18Z</time>
      </trkpt>
      <trkpt lat="51.209598267450929" lon="6.295309094712138">
        <ele>68.299999999999997</ele>
        <time>2014-05-31T21:03:09Z</time>
      </trkpt>
      <trkpt lat="51.209337841719389" lon="6.296623377129436">
        <ele>68.700000000000003</ele>
        <time>2014-05-31T21:09:00Z</time>
      </trkpt>
      <trkpt lat="51.20923868380487" lon="6.298130778595805">
        <ele>68.099999999999994</ele>
        <time>2014-05-31T21:14:52Z</time>
      </trkpt>
      <trkpt lat="51.209139609709382" lon="6.299638180062175">
        <ele>68</ele>
        <time>2014-05-31T21:20:43Z</time>
      </trkpt>
      <trkpt lat="51.2090505938977" lon="6.301110712811351">
        <ele>66.5</ele>
        <time>2014-05-31T21:28:09Z</time>
      </trkpt>
      <trkpt lat="51.208961578086019" lon="6.302583161741495">
        <ele>66.400000000000006</ele>
        <time>2014-05-31T21:35:36Z</time>
      </trkpt>
      <trkpt lat="51.208872562274337" lon="6.304055694490671">
        <ele>70.400000000000006</ele>
        <time>2014-05-31T21:43:03Z</time>
      </trkpt>
      <trkpt lat="51.208783630281687" lon="6.305528227239847">
        <ele>70.200000000000003</ele>
        <time>2014-05-31T21:50:30Z</time>
      </trkpt>
      <trkpt lat="51.208655973896384" lon="6.306984582915902">
        <ele>70.900000000000006</ele>
        <time>2014-05-31T21:57:57Z</time>
      </trkpt>
      <trkpt lat="51.208528317511082" lon="6.308441022410989">
        <ele>70.5</ele>
        <time>2014-05-31T22:05:23Z</time>
      </trkpt>
      <trkpt lat="51.208306616172194" lon="6.309639969840646">
        <ele>69.400000000000006</ele>
        <time>2014-05-31T22:12:50Z</time>
      </trkpt>
      <trkpt lat="51.208084831014276" lon="6.310838917270303">
        <ele>68.799999999999997</ele>
        <time>2014-05-31T22:20:17Z</time>
      </trkpt>
      <trkpt lat="51.207197438925505" lon="6.311646178364754">
        <ele>69.900000000000006</ele>
        <time>2014-05-31T22:32:12Z</time>
      </trkpt>
      <trkpt lat="51.206309963017702" lon="6.312453523278236">
        <ele>71</ele>
        <time>2014-05-31T22:44:07Z</time>
      </trkpt>
      <trkpt lat="51.205294830724597" lon="6.31319641135633">
        <ele>71.400000000000006</ele>
        <time>2014-05-31T22:56:02Z</time>
      </trkpt>
      <trkpt lat="51.204535095021129" lon="6.314067961648107">
        <ele>72.400000000000006</ele>
        <time>2014-05-31T23:07:56Z</time>
      </trkpt>
      <trkpt lat="51.204422526061535" lon="6.315969731658697">
        <ele>72.599999999999994</ele>
        <time>2014-05-31T23:35:15Z</time>
      </trkpt>
      <trkpt lat="51.204309873282909" lon="6.317871417850256">
        <ele>72.299999999999997</ele>
        <time>2014-06-01T00:02:34Z</time>
      </trkpt>
      <trkpt lat="51.204197304323316" lon="6.319773104041815">
        <ele>73.400000000000006</ele>
        <time>2014-06-01T00:29:53Z</time>
      </trkpt>
      <trkpt lat="51.204084735363722" lon="6.321674706414342">
        <ele>72.200000000000003</ele>
        <time>2014-06-01T00:57:11Z</time>
      </trkpt>
      <trkpt lat="51.204620841890574" lon="6.32271540351212">
        <ele>72.599999999999994</ele>
        <time>2014-06-01T01:21:37Z</time>
      </trkpt>
      <trkpt lat="51.205250909551978" lon="6.323584439232945">
        <ele>73.200000000000003</ele>
        <time>2014-06-01T01:46:02Z</time>
      </trkpt>
      <trkpt lat="51.205807216465473" lon="6.324571492150426">
        <ele>72.5</ele>
        <time>2014-06-01T02:10:28Z</time>
      </trkpt>
      <trkpt lat="51.206309627741575" lon="6.325622918084264">
        <ele>72.099999999999994</ele>
        <time>2014-06-01T02:34:53Z</time>
      </trkpt>
      <trkpt lat="51.206639036536217" lon="6.326993610709906">
        <ele>72.099999999999994</ele>
        <time>2014-06-01T02:59:19Z</time>
      </trkpt>
      <trkpt lat="51.206968361511827" lon="6.328364219516516">
        <ele>71.299999999999997</ele>
        <time>2014-06-01T03:23:44Z</time>
      </trkpt>
      <trkpt lat="51.207425510510802" lon="6.329756285995245">
        <ele>72.599999999999994</ele>
        <time>2014-06-01T03:48:10Z</time>
      </trkpt>
      <trkpt lat="51.207627095282078" lon="6.331105437129736">
        <ele>71.700000000000003</ele>
        <time>2014-06-01T04:12:35Z</time>
      </trkpt>
      <trkpt lat="51.207570768892765" lon="6.332579310983419">
        <ele>71.400000000000006</ele>
        <time>2014-06-01T04:48:03Z</time>
      </trkpt>
      <trkpt lat="51.207366585731506" lon="6.333838608115912">
        <ele>70.700000000000003</ele>
        <time>2014-06-01T05:23:31Z</time>
      </trkpt>
      <trkpt lat="51.207034830003977" lon="6.335205109789968">
        <ele>71.5</ele>
        <time>2014-06-01T05:58:58Z</time>
      </trkpt>
      <trkpt lat="51.206837268546224" lon="6.336571695283055">
        <ele>72.599999999999994</ele>
        <time>2014-06-01T06:34:26Z</time>
      </trkpt>
      <trkpt lat="51.206566784530878" lon="6.338280262425542">
        <ele>72.700000000000003</ele>
        <time>2014-06-01T07:45:21Z</time>
      </trkpt>
      <trkpt lat="51.206303760409355" lon="6.34001431055367">
        <ele>74.5</ele>
        <time>2014-06-01T08:20:49Z</time>
      </trkpt>
      <trkpt lat="51.205731611698866" lon="6.341683985665441">
        <ele>74.5</ele>
        <time>2014-06-01T08:56:16Z</time>
      </trkpt>
      <trkpt lat="51.204907335340977" lon="6.342719402164221">
        <ele>73.599999999999994</ele>
        <time>2014-06-01T10:27:03Z</time>
      </trkpt>
      <trkpt lat="51.204082975164056" lon="6.343754734843969">
        <ele>74.400000000000006</ele>
        <time>2014-06-01T11:57:49Z</time>
      </trkpt>
      <trkpt lat="51.203258698806167" lon="6.344789983704686">
        <ele>73.599999999999994</ele>
        <time>2014-06-01T13:28:35Z</time>
      </trkpt>
      <trkpt lat="51.20284647680819" lon="6.345307733863592">
        <ele>74.200000000000003</ele>
        <time>2014-06-01T14:13:58Z</time>
      </trkpt>
      <trkpt lat="51.202434338629246" lon="6.345825316384435">
        <ele>74.700000000000003</ele>
        <time>2014-06-01T14:59:21Z</time>
      </trkpt>
      <trkpt lat="51.202906994149089" lon="6.3462208583951">
        <ele>74.299999999999997</ele>
        <time>2014-06-01T15:44:44Z</time>
      </trkpt>
      <trkpt lat="51.2033795658499" lon="6.346616568043828">
        <ele>74.599999999999994</ele>
        <time>2014-06-01T16:30:08Z</time>
      </trkpt>
      <trkpt lat="51.204324876889586" lon="6.347407819703221">
        <ele>74.200000000000003</ele>
        <time>2014-06-01T18:00:54Z</time>
      </trkpt>
      <trkpt lat="51.205323999747634" lon="6.347727002575994">
        <ele>73.400000000000006</ele>
        <time>2014-06-01T19:31:40Z</time>
      </trkpt>
      <trkpt lat="51.206323122605681" lon="6.348046185448766">
        <ele>74.5</ele>
        <time>2014-06-01T21:02:26Z</time>
      </trkpt>
      <trkpt lat="51.206370228901505" lon="6.349234487861395">
        <ele>74.400000000000006</ele>
        <time>2014-06-01T23:44:44Z</time>
      </trkpt>
      <trkpt lat="51.20641733519733" lon="6.350422706454992">
        <ele>73.200000000000003</ele>
        <time>2014-06-02T02:27:01Z</time>
      </trkpt>
      <trkpt lat="51.206511463969946" lon="6.352799227461219">
        <ele>72.200000000000003</ele>
        <time>2014-06-02T07:51:37Z</time>
      </trkpt>
      <trkpt lat="51.206443486735225" lon="6.355241378769279">
        <ele>70.5</ele>
        <time>2014-06-02T09:12:45Z</time>
      </trkpt>
      <trkpt lat="51.206375425681472" lon="6.35768361389637">
        <ele>70.299999999999997</ele>
        <time>2014-06-02T10:33:54Z</time>
      </trkpt>
      <trkpt lat="51.206307364627719" lon="6.36012576520443">
        <ele>70.400000000000006</ele>
        <time>2014-06-02T11:55:03Z</time>
      </trkpt>
      <trkpt lat="51.206239303573966" lon="6.362567916512489">
        <ele>70.400000000000006</ele>
        <time>2014-06-02T13:16:12Z</time>
      </trkpt>
      <trkpt lat="51.206329325214028" lon="6.365036889910698">
        <ele>70.900000000000006</ele>
        <time>2014-06-02T14:37:21Z</time>
      </trkpt>
      <trkpt lat="51.206419179216027" lon="6.367505863308907">
        <ele>69.799999999999997</ele>
        <time>2014-06-02T15:58:29Z</time>
      </trkpt>
      <trkpt lat="51.206072168424726" lon="6.369942734017968">
        <ele>70</ele>
        <time>2014-06-02T17:19:38Z</time>
      </trkpt>
      <trkpt lat="51.206236034631729" lon="6.372250774875283">
        <ele>72.099999999999994</ele>
        <time>2014-06-02T18:40:47Z</time>
      </trkpt>
      <trkpt lat="51.205841079354286" lon="6.373921791091561">
        <ele>71.799999999999997</ele>
        <time>2014-06-02T19:40:23Z</time>
      </trkpt>
      <trkpt lat="51.20512006804347" lon="6.375437239184976">
        <ele>70.400000000000006</ele>
        <time>2014-06-02T20:39:59Z</time>
      </trkpt>
      <trkpt lat="51.204668786376715" lon="6.376935336738825">
        <ele>71.299999999999997</ele>
        <time>2014-06-02T21:09:46Z</time>
      </trkpt>
      <trkpt lat="51.204248266294599" lon="6.378440726548433">
        <ele>74.900000000000006</ele>
        <time>2014-06-02T21:24:40Z</time>
      </trkpt>
      <trkpt lat="51.203827662393451" lon="6.379946116358042">
        <ele>71</ele>
        <time>2014-06-02T21:39:34Z</time>
      </trkpt>
      <trkpt lat="51.203186614438891" lon="6.382230017334223">
        <ele>69.900000000000006</ele>
        <time>2014-06-02T22:09:22Z</time>
      </trkpt>
      <trkpt lat="51.20286600664258" lon="6.383371967822313">
        <ele>70.5</ele>
        <time>2014-06-02T22:24:16Z</time>
      </trkpt>
      <trkpt lat="51.202545398846269" lon="6.384513918310404">
        <ele>70.099999999999994</ele>
        <time>2014-06-02T22:39:10Z</time>
      </trkpt>
      <trkpt lat="51.202195035293698" lon="6.386266741901636">
        <ele>70.799999999999997</ele>
        <time>2014-06-02T23:08:58Z</time>
      </trkpt>
      <trkpt lat="51.201844587922096" lon="6.388019481673837">
        <ele>73</ele>
        <time>2014-06-02T23:38:46Z</time>
      </trkpt>
      <trkpt lat="51.20199671946466" lon="6.388087878003717">
        <ele>73.299999999999997</ele>
        <time>2014-06-03T00:08:34Z</time>
      </trkpt>
      <trkpt lat="51.202148767188191" lon="6.388156274333596">
        <ele>73.700000000000003</ele>
        <time>2014-06-03T00:38:22Z</time>
      </trkpt>
      <trkpt lat="51.202947897836566" lon="6.387999365106225">
        <ele>72.5</ele>
        <time>2014-06-03T01:08:09Z</time>
      </trkpt>
      <trkpt lat="51.203752728179097" lon="6.388731272891164">
        <ele>71</ele>
        <time>2014-06-03T01:15:36Z</time>
      </trkpt>
      <trkpt lat="51.204846482723951" lon="6.389645570889115">
        <ele>71.200000000000003</ele>
        <time>2014-06-03T01:23:03Z</time>
      </trkpt>
      <trkpt lat="51.205619461834431" lon="6.389713799580932">
        <ele>71.799999999999997</ele>
        <time>2014-06-03T01:26:47Z</time>
      </trkpt>
      <trkpt lat="51.206352123990655" lon="6.389867858961225">
        <ele>71.5</ele>
        <time>2014-06-03T01:30:30Z</time>
      </trkpt>
      <trkpt lat="51.206519929692149" lon="6.390792885795236">
        <ele>71.299999999999997</ele>
        <time>2014-06-03T01:37:57Z</time>
      </trkpt>
      <trkpt lat="51.207053940743208" lon="6.391197312623262">
        <ele>71.5</ele>
        <time>2014-06-03T01:52:51Z</time>
      </trkpt>
      <trkpt lat="51.207587867975235" lon="6.391601571813226">
        <ele>71.599999999999994</ele>
        <time>2014-06-03T02:07:45Z</time>
      </trkpt>
      <trkpt lat="51.207817699760199" lon="6.392327779904008">
        <ele>71.900000000000006</ele>
        <time>2014-06-03T02:22:39Z</time>
      </trkpt>
      <trkpt lat="51.208047531545162" lon="6.39305398799479">
        <ele>72.400000000000006</ele>
        <time>2014-06-03T02:37:33Z</time>
      </trkpt>
      <trkpt lat="51.207910906523466" lon="6.394057217985392">
        <ele>72</ele>
        <time>2014-06-03T04:20:00Z</time>
      </trkpt>
      <trkpt lat="51.207425929605961" lon="6.395840886980295">
        <ele>75.200000000000003</ele>
        <time>2014-06-03T05:11:13Z</time>
      </trkpt>
      <trkpt lat="51.206940785050392" lon="6.397624639794231">
        <ele>72.900000000000006</ele>
        <time>2014-06-03T06:02:26Z</time>
      </trkpt>
      <trkpt lat="51.206723107025027" lon="6.398482862859964">
        <ele>73.700000000000003</ele>
        <time>2014-06-03T06:15:15Z</time>
      </trkpt>
      <trkpt lat="51.206505512818694" lon="6.39934116974473">
        <ele>74.299999999999997</ele>
        <time>2014-06-03T06:28:03Z</time>
      </trkpt>
      <trkpt lat="51.206070072948933" lon="6.401057783514261">
        <ele>77.200000000000003</ele>
        <time>2014-06-03T06:53:39Z</time>
      </trkpt>
      <trkpt lat="51.205837307497859" lon="6.401916090399027">
        <ele>77.799999999999997</ele>
        <time>2014-06-03T07:06:28Z</time>
      </trkpt>
      <trkpt lat="51.205720882862806" lon="6.402345327660441">
        <ele>77.400000000000006</ele>
        <time>2014-06-03T07:12:52Z</time>
      </trkpt>
      <trkpt lat="51.205604458227754" lon="6.402774397283793">
        <ele>77.299999999999997</ele>
        <time>2014-06-03T07:19:16Z</time>
      </trkpt>
      <trkpt lat="51.205138759687543" lon="6.404491011053324">
        <ele>78.299999999999997</ele>
        <time>2014-06-03T07:44:53Z</time>
      </trkpt>
      <trkpt lat="51.204671636223793" lon="6.405429784208536">
        <ele>77</ele>
        <time>2014-06-03T07:57:41Z</time>
      </trkpt>
      <trkpt lat="51.204437864944339" lon="6.405899170786142">
        <ele>76.200000000000003</ele>
        <time>2014-06-03T08:04:05Z</time>
      </trkpt>
      <trkpt lat="51.204204261302948" lon="6.40636864118278">
        <ele>76.200000000000003</ele>
        <time>2014-06-03T08:10:29Z</time>
      </trkpt>
      <trkpt lat="51.203848030418158" lon="6.407462982460856">
        <ele>77.799999999999997</ele>
        <time>2014-06-03T08:23:18Z</time>
      </trkpt>
      <trkpt lat="51.203491715714335" lon="6.408557323738933">
        <ele>79.799999999999997</ele>
        <time>2014-06-03T08:36:06Z</time>
      </trkpt>
      <trkpt lat="51.203647116199136" lon="6.408929480239749">
        <ele>80.299999999999997</ele>
        <time>2014-06-03T08:42:30Z</time>
      </trkpt>
      <trkpt lat="51.203802600502968" lon="6.409301636740565">
        <ele>80.400000000000006</ele>
        <time>2014-06-03T08:48:54Z</time>
      </trkpt>
      <trkpt lat="51.204113401472569" lon="6.410045865923166">
        <ele>79.599999999999994</ele>
        <time>2014-06-03T09:01:43Z</time>
      </trkpt>
      <trkpt lat="51.204494861885905" lon="6.410768805071712">
        <ele>79.5</ele>
        <time>2014-06-03T09:14:31Z</time>
      </trkpt>
      <trkpt lat="51.204876322299242" lon="6.411491576582193">
        <ele>80.200000000000003</ele>
        <time>2014-06-03T09:27:19Z</time>
      </trkpt>
      <trkpt lat="51.205245964229107" lon="6.412689266726375">
        <ele>79.900000000000006</ele>
        <time>2014-06-03T09:52:56Z</time>
      </trkpt>
      <trkpt lat="51.205615606158972" lon="6.413886873051524">
        <ele>80.700000000000003</ele>
        <time>2014-06-03T10:18:33Z</time>
      </trkpt>
      <trkpt lat="51.205946607515216" lon="6.414788765832782">
        <ele>79.700000000000003</ele>
        <time>2014-06-03T10:31:21Z</time>
      </trkpt>
      <trkpt lat="51.20627760887146" lon="6.415690658614039">
        <ele>79.099999999999994</ele>
        <time>2014-06-03T10:44:09Z</time>
      </trkpt>
      <trkpt lat="51.206608694046736" lon="6.416592635214329">
        <ele>78.599999999999994</ele>
        <time>2014-06-03T10:56:58Z</time>
      </trkpt>
      <trkpt lat="51.20693969540298" lon="6.417494527995586">
        <ele>76.900000000000006</ele>
        <time>2014-06-03T11:09:46Z</time>
      </trkpt>
      <trkpt lat="51.206868197768927" lon="6.419099830091">
        <ele>78.299999999999997</ele>
        <time>2014-06-03T11:35:23Z</time>
      </trkpt>
      <trkpt lat="51.206796700134873" lon="6.420705132186413">
        <ele>79.799999999999997</ele>
        <time>2014-06-03T12:00:59Z</time>
      </trkpt>
      <trkpt lat="51.206661919131875" lon="6.422113878652453">
        <ele>81</ele>
        <time>2014-06-03T12:13:48Z</time>
      </trkpt>
      <trkpt lat="51.206526970490813" lon="6.423522708937526">
        <ele>79.599999999999994</ele>
        <time>2014-06-03T12:26:36Z</time>
      </trkpt>
      <trkpt lat="51.20629127137363" lon="6.423987401649356">
        <ele>80.200000000000003</ele>
        <time>2014-06-03T12:39:24Z</time>
      </trkpt>
      <trkpt lat="51.206479026004672" lon="6.424462907016277">
        <ele>79.200000000000003</ele>
        <time>2014-06-03T12:52:13Z</time>
      </trkpt>
      <trkpt lat="51.206745821982622" lon="6.425794623792172">
        <ele>76.5</ele>
        <time>2014-06-03T13:05:01Z</time>
      </trkpt>
      <trkpt lat="51.207012617960572" lon="6.427126340568066">
        <ele>76.5</ele>
        <time>2014-06-03T13:17:49Z</time>
      </trkpt>
      <trkpt lat="51.207279413938522" lon="6.428458141162992">
        <ele>76</ele>
        <time>2014-06-03T13:30:37Z</time>
      </trkpt>
      <trkpt lat="51.207546209916472" lon="6.429789774119854">
        <ele>75.5</ele>
        <time>2014-06-03T13:43:26Z</time>
      </trkpt>
      <trkpt lat="51.207836475223303" lon="6.431132303550839">
        <ele>75.700000000000003</ele>
        <time>2014-06-03T13:56:14Z</time>
      </trkpt>
      <trkpt lat="51.208126824349165" lon="6.432474665343761">
        <ele>76.200000000000003</ele>
        <time>2014-06-03T14:09:02Z</time>
      </trkpt>
      <trkpt lat="51.208417089655995" lon="6.433779560029507">
        <ele>73.5</ele>
        <time>2014-06-03T14:21:51Z</time>
      </trkpt>
      <trkpt lat="51.208909107372165" lon="6.434977166354656">
        <ele>74.200000000000003</ele>
        <time>2014-06-03T14:34:39Z</time>
      </trkpt>
      <trkpt lat="51.209488129243255" lon="6.436255322769284">
        <ele>72.900000000000006</ele>
        <time>2014-06-03T14:47:27Z</time>
      </trkpt>
      <trkpt lat="51.210066983476281" lon="6.437533311545849">
        <ele>70.5</ele>
        <time>2014-06-03T15:00:16Z</time>
      </trkpt>
      <trkpt lat="51.210676180198789" lon="6.43880870193243">
        <ele>69.700000000000003</ele>
        <time>2014-06-03T15:13:04Z</time>
      </trkpt>
      <trkpt lat="51.211285376921296" lon="6.440084092319012">
        <ele>66.700000000000003</ele>
        <time>2014-06-03T15:25:52Z</time>
      </trkpt>
      <trkpt lat="51.211083121597767" lon="6.441284380853176">
        <ele>64.5</ele>
        <time>2014-06-03T15:38:41Z</time>
      </trkpt>
      <trkpt lat="51.210880698636174" lon="6.442484669387341">
        <ele>60.600000000000001</ele>
        <time>2014-06-03T15:51:29Z</time>
      </trkpt>
      <trkpt lat="51.210580877959728" lon="6.443947814404964">
        <ele>55.299999999999997</ele>
        <time>2014-06-03T16:04:17Z</time>
      </trkpt>
      <trkpt lat="51.211147494614124" lon="6.444774521514773">
        <ele>52.899999999999999</ele>
        <time>2014-06-03T16:05:53Z</time>
      </trkpt>
      <trkpt lat="51.21171411126852" lon="6.445601060986519">
        <ele>51.700000000000003</ele>
        <time>2014-06-03T16:07:29Z</time>
      </trkpt>
      <trkpt lat="51.212092470377684" lon="6.446524327620864">
        <ele>49.600000000000001</ele>
        <time>2014-06-03T16:09:05Z</time>
      </trkpt>
      <trkpt lat="51.212470913305879" lon="6.447447510436177">
        <ele>47.600000000000001</ele>
        <time>2014-06-03T16:10:42Z</time>
      </trkpt>
      <trkpt lat="51.212132535874844" lon="6.448045894503593">
        <ele>48</ele>
        <time>2014-06-03T16:11:30Z</time>
      </trkpt>
      <trkpt lat="51.211794074624777" lon="6.448644194751978">
        <ele>49.100000000000001</ele>
        <time>2014-06-03T16:12:18Z</time>
      </trkpt>
      <trkpt lat="51.211388474330306" lon="6.450294004753232">
        <ele>48.200000000000003</ele>
        <time>2014-06-03T16:13:06Z</time>
      </trkpt>
      <trkpt lat="51.210929229855537" lon="6.451428914442658">
        <ele>47</ele>
        <time>2014-06-03T16:13:54Z</time>
      </trkpt>
      <trkpt lat="51.210337299853563" lon="6.452991385012865">
        <ele>45.299999999999997</ele>
        <time>2014-06-03T16:14:18Z</time>
      </trkpt>
      <trkpt lat="51.209960617125034" lon="6.454940093681216">
        <ele>45.600000000000001</ele>
        <time>2014-06-03T16:14:42Z</time>
      </trkpt>
      <trkpt lat="51.209530122578144" lon="6.456963988021016">
        <ele>44.899999999999999</ele>
        <time>2014-06-03T16:15:06Z</time>
      </trkpt>
      <trkpt lat="51.209546802565455" lon="6.458437275141478">
        <ele>44.299999999999997</ele>
        <time>2014-06-03T16:15:18Z</time>
      </trkpt>
      <trkpt lat="51.209563398733735" lon="6.459910478442907">
        <ele>43.899999999999999</ele>
        <time>2014-06-03T16:15:30Z</time>
      </trkpt>
      <trkpt lat="51.209073979407549" lon="6.461274633184075">
        <ele>44.799999999999997</ele>
        <time>2014-06-03T16:15:54Z</time>
      </trkpt>
      <trkpt lat="51.208584560081363" lon="6.46263862028718">
        <ele>46.100000000000001</ele>
        <time>2014-06-03T16:16:18Z</time>
      </trkpt>
      <trkpt lat="51.209487458691001" lon="6.463990621268749">
        <ele>45.100000000000001</ele>
        <time>2014-06-03T16:16:21Z</time>
      </trkpt>
      <trkpt lat="51.210390273481607" lon="6.465342622250319">
        <ele>45.700000000000003</ele>
        <time>2014-06-03T16:16:24Z</time>
      </trkpt>
      <trkpt lat="51.211293172091246" lon="6.466694623231888">
        <ele>46</ele>
        <time>2014-06-03T16:16:27Z</time>
      </trkpt>
      <trkpt lat="51.212195986881852" lon="6.468046624213457">
        <ele>46.100000000000001</ele>
        <time>2014-06-03T16:16:30Z</time>
      </trkpt>
      <trkpt lat="51.21309888549149" lon="6.469398709014058">
        <ele>43.700000000000003</ele>
        <time>2014-06-03T16:16:33Z</time>
      </trkpt>
      <trkpt lat="51.214001784101129" lon="6.470750709995627">
        <ele>43.5</ele>
        <time>2014-06-03T16:16:36Z</time>
      </trkpt>
      <trkpt lat="51.21489797718823" lon="6.472118804231286">
        <ele>44.399999999999999</ele>
        <time>2014-06-03T16:16:39Z</time>
      </trkpt>
      <trkpt lat="51.215794086456299" lon="6.473486898466945">
        <ele>46.200000000000003</ele>
        <time>2014-06-03T16:16:42Z</time>
      </trkpt>
      <trkpt lat="51.216653315350413" lon="6.47474242374301">
        <ele>46.100000000000001</ele>
        <time>2014-06-03T16:16:45Z</time>
      </trkpt>
      <trkpt lat="51.217512376606464" lon="6.475997781381011">
        <ele>42.700000000000003</ele>
        <time>2014-06-03T16:16:48Z</time>
      </trkpt>
      <trkpt lat="51.218411922454834" lon="6.477065468207002">
        <ele>42.399999999999999</ele>
        <time>2014-06-03T16:16:51Z</time>
      </trkpt>
      <trkpt lat="51.219311384484172" lon="6.478133238852024">
        <ele>43.100000000000001</ele>
        <time>2014-06-03T16:16:54Z</time>
      </trkpt>
      <trkpt lat="51.220274800434709" lon="6.479099001735449">
        <ele>43.100000000000001</ele>
        <time>2014-06-03T16:16:57Z</time>
      </trkpt>
      <trkpt lat="51.221238132566214" lon="6.480064764618874">
        <ele>42.100000000000001</ele>
        <time>2014-06-03T16:17:00Z</time>
      </trkpt>
      <trkpt lat="51.222043465822935" lon="6.481025163084269">
        <ele>42.5</ele>
        <time>2014-06-03T16:17:03Z</time>
      </trkpt>
      <trkpt lat="51.222848882898688" lon="6.481985561549664">
        <ele>43.899999999999999</ele>
        <time>2014-06-03T16:17:06Z</time>
      </trkpt>
      <trkpt lat="51.223022807389498" lon="6.482558213174343">
        <ele>44.5</ele>
        <time>2014-06-03T16:48:55Z</time>
      </trkpt>
      <trkpt lat="51.223022388294339" lon="6.483305878937244">
        <ele>43.899999999999999</ele>
        <time>2014-06-03T17:04:49Z</time>
      </trkpt>
      <trkpt lat="51.222849301993847" lon="6.484212130308151">
        <ele>40.899999999999999</ele>
        <time>2014-06-03T17:06:48Z</time>
      </trkpt>
      <trkpt lat="51.222676215693355" lon="6.485118297860026">
        <ele>39.600000000000001</ele>
        <time>2014-06-03T17:08:48Z</time>
      </trkpt>
      <trkpt lat="51.222503129392862" lon="6.48602438159287">
        <ele>39</ele>
        <time>2014-06-03T17:10:47Z</time>
      </trkpt>
      <trkpt lat="51.222329959273338" lon="6.486930632963777">
        <ele>40.5</ele>
        <time>2014-06-03T17:12:46Z</time>
      </trkpt>
      <trkpt lat="51.222237590700388" lon="6.488062106072903">
        <ele>40.5</ele>
        <time>2014-06-03T17:14:46Z</time>
      </trkpt>
      <trkpt lat="51.222145222127438" lon="6.489193579182029">
        <ele>42</ele>
        <time>2014-06-03T17:16:45Z</time>
      </trkpt>
      <trkpt lat="51.222052685916424" lon="6.490324968472123">
        <ele>44.600000000000001</ele>
        <time>2014-06-03T17:18:44Z</time>
      </trkpt>
      <trkpt lat="51.221960317343473" lon="6.491456525400281">
        <ele>46.899999999999999</ele>
        <time>2014-06-03T17:20:44Z</time>
      </trkpt>
      <trkpt lat="51.221828805282712" lon="6.492665531113744">
        <ele>44</ele>
        <time>2014-06-03T17:36:38Z</time>
      </trkpt>
      <trkpt lat="51.221697293221951" lon="6.493874536827207">
        <ele>40.600000000000001</ele>
        <time>2014-06-03T17:52:33Z</time>
      </trkpt>
      <trkpt lat="51.22164842672646" lon="6.494956472888589">
        <time>2014-06-03T18:00:30Z</time>
      </trkpt>
      <trkpt lat="51.221599476411939" lon="6.496038408949971">
        <ele>39.5</ele>
        <time>2014-06-03T18:08:27Z</time>
      </trkpt>
      <trkpt lat="51.22132639400661" lon="6.4973786752671">
        <ele>40.399999999999999</ele>
        <time>2014-06-03T18:12:26Z</time>
      </trkpt>
      <trkpt lat="51.221053311601281" lon="6.49871894158423">
        <ele>39.399999999999999</ele>
        <time>2014-06-03T18:16:24Z</time>
      </trkpt>
      <trkpt lat="51.220916770398617" lon="6.499388990923762">
        <ele>39.399999999999999</ele>
        <time>2014-06-03T18:18:24Z</time>
      </trkpt>
      <trkpt lat="51.220780229195952" lon="6.500059207901359">
        <ele>39.399999999999999</ele>
        <time>2014-06-03T18:20:23Z</time>
      </trkpt>
      <trkpt lat="51.220507062971592" lon="6.501399390399456">
        <ele>38.799999999999997</ele>
        <time>2014-06-03T18:24:22Z</time>
      </trkpt>
      <trkpt lat="51.220283517614007" lon="6.502430364489555">
        <ele>37.899999999999999</ele>
        <time>2014-06-03T18:32:19Z</time>
      </trkpt>
      <trkpt lat="51.22005988843739" lon="6.503461422398686">
        <ele>38.399999999999999</ele>
        <time>2014-06-03T18:40:16Z</time>
      </trkpt>
      <trkpt lat="51.219836259260774" lon="6.504492396488786">
        <ele>38.799999999999997</ele>
        <time>2014-06-03T18:48:13Z</time>
      </trkpt>
      <trkpt lat="51.219612630084157" lon="6.505523286759853">
        <ele>38.399999999999999</ele>
        <time>2014-06-03T18:56:11Z</time>
      </trkpt>
      <trkpt lat="51.219348600134254" lon="6.506897583603859">
        <ele>38.700000000000003</ele>
        <time>2014-06-03T19:04:08Z</time>
      </trkpt>
      <trkpt lat="51.21908457018435" lon="6.508271880447865">
        <ele>39.5</ele>
        <time>2014-06-03T19:12:05Z</time>
      </trkpt>
      <trkpt lat="51.219060178846121" lon="6.509235296398401">
        <ele>39.5</ele>
        <time>2014-06-03T19:16:04Z</time>
      </trkpt>
      <trkpt lat="51.21903570368886" lon="6.51019879616797">
        <ele>39.299999999999997</ele>
        <time>2014-06-03T19:20:02Z</time>
      </trkpt>
      <trkpt lat="51.219011312350631" lon="6.511162212118506">
        <ele>38.399999999999999</ele>
        <time>2014-06-03T19:24:01Z</time>
      </trkpt>
      <trkpt lat="51.21898683719337" lon="6.512125628069043">
        <ele>37.899999999999999</ele>
        <time>2014-06-03T19:28:00Z</time>
      </trkpt>
      <trkpt lat="51.2190699018538" lon="6.512796683236957">
        <ele>37.899999999999999</ele>
        <time>2014-06-03T19:31:58Z</time>
      </trkpt>
      <trkpt lat="51.219152882695198" lon="6.51346773840487">
        <ele>38.799999999999997</ele>
        <time>2014-06-03T19:35:57Z</time>
      </trkpt>
      <trkpt lat="51.219319012016058" lon="6.514809764921665">
        <ele>40.899999999999999</ele>
        <time>2014-06-03T19:43:54Z</time>
      </trkpt>
      <trkpt lat="51.219404507428408" lon="6.516055399551988">
        <ele>41.200000000000003</ele>
        <time>2014-06-03T19:51:51Z</time>
      </trkpt>
      <trkpt lat="51.219489919021726" lon="6.517300866544247">
        <ele>41.200000000000003</ele>
        <time>2014-06-03T19:59:49Z</time>
      </trkpt>
      <trkpt lat="51.21940073557198" lon="6.518508866429329">
        <ele>40.899999999999999</ele>
        <time>2014-06-03T20:07:46Z</time>
      </trkpt>
      <trkpt lat="51.219311468303204" lon="6.519716866314411">
        <ele>40.200000000000003</ele>
        <time>2014-06-03T20:15:43Z</time>
      </trkpt>
      <trkpt lat="51.219168473035097" lon="6.520935678854585">
        <ele>40.399999999999999</ele>
        <time>2014-06-03T20:23:40Z</time>
      </trkpt>
      <trkpt lat="51.219025393947959" lon="6.522154407575727">
        <ele>39.299999999999997</ele>
        <time>2014-06-03T20:31:38Z</time>
      </trkpt>
      <trkpt lat="51.219815388321877" lon="6.522982539609075">
        <ele>39.399999999999999</ele>
        <time>2014-06-03T20:38:30Z</time>
      </trkpt>
      <trkpt lat="51.220210259780288" lon="6.523396605625749">
        <ele>39.399999999999999</ele>
        <time>2014-06-03T20:41:55Z</time>
      </trkpt>
      <trkpt lat="51.220605298876762" lon="6.523810587823391">
        <ele>38.899999999999999</ele>
        <time>2014-06-03T20:45:21Z</time>
      </trkpt>
      <trkpt lat="51.221395209431648" lon="6.524638719856739">
        <ele>38.200000000000003</ele>
        <time>2014-06-03T20:52:13Z</time>
      </trkpt>
      <trkpt lat="51.222185119986534" lon="6.525466768071055">
        <ele>38.200000000000003</ele>
        <time>2014-06-03T20:59:05Z</time>
      </trkpt>
      <trkpt lat="51.22297503054142" lon="6.526294900104404">
        <ele>38.799999999999997</ele>
        <time>2014-06-03T21:05:57Z</time>
      </trkpt>
      <trkpt lat="51.223764941096306" lon="6.527122864499688">
        <ele>38.200000000000003</ele>
        <time>2014-06-03T21:12:49Z</time>
      </trkpt>
      <trkpt lat="51.22455476783216" lon="6.527950996533036">
        <ele>38.5</ele>
        <time>2014-06-03T21:19:41Z</time>
      </trkpt>
      <trkpt lat="51.225344678387046" lon="6.528779128566384">
        <ele>38</ele>
        <time>2014-06-03T21:26:32Z</time>
      </trkpt>
      <trkpt lat="51.225760672241449" lon="6.529292436316609">
        <ele>38.399999999999999</ele>
        <time>2014-06-03T21:29:58Z</time>
      </trkpt>
      <trkpt lat="51.226176582276821" lon="6.529805660247803">
        <ele>38.5</ele>
        <time>2014-06-03T21:33:24Z</time>
      </trkpt>
      <trkpt lat="51.227008486166596" lon="6.530832275748253">
        <ele>40.5</ele>
        <time>2014-06-03T21:40:16Z</time>
      </trkpt>
      <trkpt lat="51.227476531639695" lon="6.531466282904148">
        <ele>39.700000000000003</ele>
        <time>2014-06-03T21:43:42Z</time>
      </trkpt>
      <trkpt lat="51.227944577112794" lon="6.532100290060043">
        <ele>39.200000000000003</ele>
        <time>2014-06-03T21:47:08Z</time>
      </trkpt>
      <trkpt lat="51.228412622585893" lon="6.532734297215939">
        <ele>39.200000000000003</ele>
        <time>2014-06-03T21:50:34Z</time>
      </trkpt>
      <trkpt lat="51.22888058423996" lon="6.533368304371834">
        <ele>39.100000000000001</ele>
        <time>2014-06-03T21:54:00Z</time>
      </trkpt>
      <trkpt lat="51.229442087933421" lon="6.533914804458618">
        <ele>38.5</ele>
        <time>2014-06-03T22:00:52Z</time>
      </trkpt>
      <trkpt lat="51.230003591626883" lon="6.534461220726371">
        <ele>38.200000000000003</ele>
        <time>2014-06-03T22:07:43Z</time>
      </trkpt>
      <trkpt lat="51.230565011501312" lon="6.535007720813155">
        <ele>40.200000000000003</ele>
        <time>2014-06-03T22:14:35Z</time>
      </trkpt>
      <trkpt lat="51.231126515194774" lon="6.535554137080908">
        <ele>41</ele>
        <time>2014-06-03T22:21:27Z</time>
      </trkpt>
      <trkpt lat="51.23096901923418" lon="6.536963637918234">
        <ele>42.399999999999999</ele>
        <time>2014-06-03T22:34:43Z</time>
      </trkpt>
      <trkpt lat="51.230811607092619" lon="6.53837313875556">
        <ele>43.700000000000003</ele>
        <time>2014-06-03T22:47:59Z</time>
      </trkpt>
      <trkpt lat="51.230643969029188" lon="6.539798732846975">
        <ele>44</ele>
        <time>2014-06-03T23:01:14Z</time>
      </trkpt>
      <trkpt lat="51.230476498603821" lon="6.541224326938391">
        <ele>41.399999999999999</ele>
        <time>2014-06-03T23:14:30Z</time>
      </trkpt>
      <trkpt lat="51.230319002643228" lon="6.542607005685568">
        <ele>40.5</ele>
        <time>2014-06-03T23:27:46Z</time>
      </trkpt>
      <trkpt lat="51.230161506682634" lon="6.543989684432745">
        <ele>39.299999999999997</ele>
        <time>2014-06-03T23:41:02Z</time>
      </trkpt>
      <trkpt lat="51.229994036257267" lon="6.54546900652349">
        <ele>40</ele>
        <time>2014-06-03T23:54:17Z</time>
      </trkpt>
      <trkpt lat="51.229826398193836" lon="6.546948160976172">
        <ele>40.100000000000001</ele>
        <time>2014-06-04T00:07:33Z</time>
      </trkpt>
      <trkpt lat="51.229621628299356" lon="6.54877751134336">
        <ele>39.899999999999999</ele>
        <time>2014-06-04T00:14:30Z</time>
      </trkpt>
      <trkpt lat="51.229416690766811" lon="6.550606861710548">
        <ele>40</ele>
        <time>2014-06-04T00:21:27Z</time>
      </trkpt>
      <trkpt lat="51.22918157838285" lon="6.552527407184243">
        <ele>38.5</ele>
        <time>2014-06-04T00:28:23Z</time>
      </trkpt>
      <trkpt lat="51.228980161249638" lon="6.554426494985819">
        <ele>39.799999999999997</ele>
        <time>2014-06-04T00:35:20Z</time>
      </trkpt>
      <trkpt lat="51.228825682774186" lon="6.556325498968363">
        <ele>40</ele>
        <time>2014-06-04T00:42:17Z</time>
      </trkpt>
      <trkpt lat="51.228671204298735" lon="6.558224586769939">
        <ele>39.600000000000001</ele>
        <time>2014-06-04T00:49:14Z</time>
      </trkpt>
      <trkpt lat="51.228614207357168" lon="6.560118310153484">
        <ele>40.600000000000001</ele>
        <time>2014-06-04T00:56:11Z</time>
      </trkpt>
      <trkpt lat="51.22855712659657" lon="6.56201203353703">
        <ele>39.5</ele>
        <time>2014-06-04T01:03:08Z</time>
      </trkpt>
      <trkpt lat="51.228499207645655" lon="6.563826464116573">
        <ele>42</ele>
        <time>2014-06-04T01:07:21Z</time>
      </trkpt>
      <trkpt lat="51.228441204875708" lon="6.565640978515148">
        <ele>43.799999999999997</ele>
        <time>2014-06-04T01:11:34Z</time>
      </trkpt>
      <trkpt lat="51.228383285924792" lon="6.567455492913723">
        <ele>44.600000000000001</ele>
        <time>2014-06-04T01:15:47Z</time>
      </trkpt>
      <trkpt lat="51.228325283154845" lon="6.569270007312298">
        <ele>41.5</ele>
        <time>2014-06-04T01:20:00Z</time>
      </trkpt>
      <trkpt lat="51.22826736420393" lon="6.571084605529904">
        <ele>41.700000000000003</ele>
        <time>2014-06-04T01:24:13Z</time>
      </trkpt>
      <trkpt lat="51.228209361433983" lon="6.572899119928479">
        <ele>42.899999999999999</ele>
        <time>2014-06-04T01:28:26Z</time>
      </trkpt>
      <trkpt lat="51.228151526302099" lon="6.574713634327054">
        <ele>39.700000000000003</ele>
        <time>2014-06-04T01:32:39Z</time>
      </trkpt>
      <trkpt lat="51.228093523532152" lon="6.576528064906597">
        <ele>42.200000000000003</ele>
        <time>2014-06-04T01:36:52Z</time>
      </trkpt>
      <trkpt lat="51.227999394759536" lon="6.578512899577618">
        <ele>41.899999999999999</ele>
        <time>2014-06-04T01:39:29Z</time>
      </trkpt>
      <trkpt lat="51.227905265986919" lon="6.580497566610575">
        <ele>39.700000000000003</ele>
        <time>2014-06-04T01:42:06Z</time>
      </trkpt>
      <trkpt lat="51.227811221033335" lon="6.582482401281595">
        <ele>41</ele>
        <time>2014-06-04T01:44:43Z</time>
      </trkpt>
      <trkpt lat="51.22771717607975" lon="6.584467235952616">
        <ele>41.100000000000001</ele>
        <time>2014-06-04T01:47:19Z</time>
      </trkpt>
      <trkpt lat="51.227623131126165" lon="6.586451902985573">
        <ele>39.700000000000003</ele>
        <time>2014-06-04T01:49:56Z</time>
      </trkpt>
      <trkpt lat="51.227529002353549" lon="6.588436737656593">
        <ele>43.399999999999999</ele>
        <time>2014-06-04T01:52:33Z</time>
      </trkpt>
      <trkpt lat="51.227434873580933" lon="6.59042140468955">
        <ele>44.200000000000003</ele>
        <time>2014-06-04T01:55:10Z</time>
      </trkpt>
      <trkpt lat="51.227340828627348" lon="6.592406239360571">
        <ele>41.799999999999997</ele>
        <time>2014-06-04T01:57:47Z</time>
      </trkpt>
      <trkpt lat="51.226715873926878" lon="6.594358887523413">
        <ele>38.899999999999999</ele>
        <time>2014-06-04T02:00:35Z</time>
      </trkpt>
      <trkpt lat="51.22609100304544" lon="6.596311619505286">
        <ele>38.200000000000003</ele>
        <time>2014-06-04T02:03:24Z</time>
      </trkpt>
      <trkpt lat="51.225466132164001" lon="6.598264183849096">
        <ele>40.200000000000003</ele>
        <time>2014-06-04T02:06:12Z</time>
      </trkpt>
      <trkpt lat="51.224841261282563" lon="6.60021691583097">
        <ele>41.100000000000001</ele>
        <time>2014-06-04T02:09:01Z</time>
      </trkpt>
      <trkpt lat="51.224216390401125" lon="6.602169563993812">
        <ele>40.799999999999997</ele>
        <time>2014-06-04T02:11:50Z</time>
      </trkpt>
      <trkpt lat="51.223591519519687" lon="6.604122295975685">
        <ele>38.799999999999997</ele>
        <time>2014-06-04T02:14:38Z</time>
      </trkpt>
      <trkpt lat="51.222966564819217" lon="6.606074860319495">
        <ele>39</ele>
        <time>2014-06-04T02:17:27Z</time>
      </trkpt>
      <trkpt lat="51.222341693937778" lon="6.608027592301369">
        <ele>39.399999999999999</ele>
        <time>2014-06-04T02:20:16Z</time>
      </trkpt>
      <trkpt lat="51.221837690100074" lon="6.609636917710304">
        <ele>39.5</ele>
        <time>2014-06-04T02:22:04Z</time>
      </trkpt>
      <trkpt lat="51.221333770081401" lon="6.611246326938272">
        <ele>39</ele>
        <time>2014-06-04T02:23:52Z</time>
      </trkpt>
      <trkpt lat="51.220829766243696" lon="6.612855568528175">
        <ele>38.899999999999999</ele>
        <time>2014-06-04T02:25:40Z</time>
      </trkpt>
      <trkpt lat="51.220325762405992" lon="6.614464893937111">
        <ele>39</ele>
        <time>2014-06-04T02:27:28Z</time>
      </trkpt>
      <trkpt lat="51.219821758568287" lon="6.616074219346046">
        <ele>38.200000000000003</ele>
        <time>2014-06-04T02:29:16Z</time>
      </trkpt>
      <trkpt lat="51.219317922368646" lon="6.617683628574014">
        <ele>39.100000000000001</ele>
        <time>2014-06-04T02:31:04Z</time>
      </trkpt>
      <trkpt lat="51.218813918530941" lon="6.619292870163918">
        <ele>38.299999999999997</ele>
        <time>2014-06-04T02:32:52Z</time>
      </trkpt>
      <trkpt lat="51.218309914693236" lon="6.620902195572853">
        <ele>39.399999999999999</ele>
        <time>2014-06-04T02:34:40Z</time>
      </trkpt>
      <trkpt lat="51.218027696013451" lon="6.622726013883948">
        <ele>39</ele>
        <time>2014-06-04T02:36:28Z</time>
      </trkpt>
      <trkpt lat="51.217745393514633" lon="6.624549832195044">
        <ele>39.299999999999997</ele>
        <time>2014-06-04T02:38:17Z</time>
      </trkpt>
      <trkpt lat="51.217530397698283" lon="6.626416482031345">
        <ele>39.5</ele>
        <time>2014-06-04T02:40:06Z</time>
      </trkpt>
      <trkpt lat="51.217463091015816" lon="6.628111638128758">
        <ele>39.5</ele>
        <time>2014-06-04T02:41:54Z</time>
      </trkpt>
      <trkpt lat="51.217382540926337" lon="6.629570676013827">
        <ele>40.299999999999997</ele>
        <time>2014-06-04T02:42:19Z</time>
      </trkpt>
      <trkpt lat="51.217301907017827" lon="6.630858220160008">
        <ele>41</ele>
        <time>2014-06-04T02:42:44Z</time>
      </trkpt>
      <trkpt lat="51.217261590063572" lon="6.632059765979648">
        <ele>40</ele>
        <time>2014-06-04T02:43:09Z</time>
      </trkpt>
      <trkpt lat="51.217153966426849" lon="6.633497513830662">
        <ele>38.899999999999999</ele>
        <time>2014-06-04T02:43:33Z</time>
      </trkpt>
      <trkpt lat="51.217033099383116" lon="6.634849263355136">
        <ele>38.799999999999997</ele>
        <time>2014-06-04T02:43:58Z</time>
      </trkpt>
      <trkpt lat="51.216992782428861" lon="6.636179722845554">
        <ele>38.700000000000003</ele>
        <time>2014-06-04T02:44:23Z</time>
      </trkpt>
      <trkpt lat="51.216912064701319" lon="6.637574387714267">
        <ele>39.200000000000003</ele>
        <time>2014-06-04T02:44:48Z</time>
      </trkpt>
      <trkpt lat="51.21683151461184" lon="6.638711728155613">
        <ele>39.299999999999997</ele>
        <time>2014-06-04T02:45:12Z</time>
      </trkpt>
      <trkpt lat="51.216744091361761" lon="6.639870358631015">
        <ele>39.299999999999997</ele>
        <time>2014-06-04T02:45:42Z</time>
      </trkpt>
      <trkpt lat="51.216643340885639" lon="6.641114903613925">
        <ele>39.799999999999997</ele>
        <time>2014-06-04T02:46:11Z</time>
      </trkpt>
      <trkpt lat="51.216649962589145" lon="6.642123414203525">
        <ele>41</ele>
        <time>2014-06-04T02:46:40Z</time>
      </trkpt>
      <trkpt lat="51.216562706977129" lon="6.64328221231699">
        <ele>42.200000000000003</ele>
        <time>2014-06-04T02:47:09Z</time>
      </trkpt>
      <trkpt lat="51.216522306203842" lon="6.644569588825107">
        <ele>41</ele>
        <time>2014-06-04T02:48:08Z</time>
      </trkpt>
      <trkpt lat="51.21614595875144" lon="6.647316170856357">
        <ele>41.899999999999999</ele>
        <time>2014-06-04T02:49:07Z</time>
      </trkpt>
      <trkpt lat="51.21662967838347" lon="6.649998463690281">
        <ele>42.5</ele>
        <time>2014-06-04T02:49:29Z</time>
      </trkpt>
      <trkpt lat="51.217207526788116" lon="6.65257346816361">
        <ele>44.299999999999997</ele>
        <time>2014-06-04T02:49:51Z</time>
      </trkpt>
      <trkpt lat="51.217785207554698" lon="6.655148388817906">
        <ele>44.799999999999997</ele>
        <time>2014-06-04T02:50:13Z</time>
      </trkpt>
      <trkpt lat="51.218362972140312" lon="6.657723393291235">
        <ele>44.399999999999999</ele>
        <time>2014-06-04T02:50:35Z</time>
      </trkpt>
      <trkpt lat="51.217879503965378" lon="6.660341061651707">
        <ele>39.399999999999999</ele>
        <time>2014-06-04T02:50:57Z</time>
      </trkpt>
      <trkpt lat="51.217181039974093" lon="6.662529576569796">
        <ele>38.5</ele>
        <time>2014-06-04T02:51:18Z</time>
      </trkpt>
      <trkpt lat="51.217900039628148" lon="6.66392432525754">
        <ele>39.399999999999999</ele>
        <time>2014-06-04T02:51:26Z</time>
      </trkpt>
      <trkpt lat="51.218578722327948" lon="6.665190411731601">
        <ele>40.399999999999999</ele>
        <time>2014-06-04T02:51:33Z</time>
      </trkpt>
      <trkpt lat="51.219297805801034" lon="6.666864110156894">
        <ele>39.200000000000003</ele>
        <time>2014-06-04T02:51:40Z</time>
      </trkpt>
      <trkpt lat="51.220003394410014" lon="6.668773759156466">
        <ele>38.5</ele>
        <time>2014-06-04T02:51:48Z</time>
      </trkpt>
      <trkpt lat="51.220305813476443" lon="6.670039761811495">
        <ele>39.200000000000003</ele>
        <time>2014-06-04T02:51:55Z</time>
      </trkpt>
      <trkpt lat="51.220930684357882" lon="6.671541798859835">
        <ele>39.299999999999997</ele>
        <time>2014-06-04T02:52:03Z</time>
      </trkpt>
      <trkpt lat="51.221636272966862" lon="6.672850716859102">
        <ele>38.399999999999999</ele>
        <time>2014-06-04T02:52:10Z</time>
      </trkpt>
      <trkpt lat="51.222355272620916" lon="6.674374211579561">
        <ele>39.899999999999999</ele>
        <time>2014-06-04T02:52:17Z</time>
      </trkpt>
      <trkpt lat="51.223551286384463" lon="6.676198113709688">
        <ele>39.5</ele>
        <time>2014-06-04T02:52:23Z</time>
      </trkpt>
      <trkpt lat="51.223934171721339" lon="6.677077878266573">
        <ele>39.5</ele>
        <time>2014-06-04T02:52:26Z</time>
      </trkpt>
      <trkpt lat="51.224330635741353" lon="6.678172219544649">
        <ele>39.100000000000001</ele>
        <time>2014-06-04T02:52:29Z</time>
      </trkpt>
      <trkpt lat="51.224673204123974" lon="6.679094899445772">
        <ele>39.5</ele>
        <time>2014-06-04T02:52:31Z</time>
      </trkpt>
      <trkpt lat="51.225109901279211" lon="6.680360902100802">
        <ele>40.899999999999999</ele>
        <time>2014-06-04T02:52:34Z</time>
      </trkpt>
      <trkpt lat="51.225560093298554" lon="6.681283582001925">
        <ele>40.700000000000003</ele>
        <time>2014-06-04T02:52:37Z</time>
      </trkpt>
      <trkpt lat="51.225754888728261" lon="6.682013059034944">
        <ele>40.399999999999999</ele>
        <time>2014-06-04T02:52:40Z</time>
      </trkpt>
      <trkpt lat="51.225943062454462" lon="6.682549584656954">
        <ele>40.299999999999997</ele>
        <time>2014-06-04T02:52:44Z</time>
      </trkpt>
      <trkpt lat="51.226292420178652" lon="6.682485211640596">
        <ele>39.899999999999999</ele>
        <time>2014-06-04T02:52:47Z</time>
      </trkpt>
      <trkpt lat="51.226749317720532" lon="6.682807076722384">
        <ele>39.5</ele>
        <time>2014-06-04T02:52:51Z</time>
      </trkpt>
      <trkpt lat="51.227421211078763" lon="6.68342943303287">
        <ele>40.200000000000003</ele>
        <time>2014-06-04T02:52:55Z</time>
      </trkpt>
      <trkpt lat="51.229060376062989" lon="6.685253418982029">
        <ele>36.5</ele>
        <time>2014-06-04T02:52:56Z</time>
      </trkpt>
      <trkpt lat="51.230860808864236" lon="6.687034405767918">
        <ele>37.100000000000001</ele>
        <time>2014-06-04T02:52:57Z</time>
      </trkpt>
      <trkpt lat="51.23206989839673" lon="6.688429322093725">
        <ele>34.399999999999999</ele>
        <time>2014-06-04T02:52:58Z</time>
      </trkpt>
      <trkpt lat="51.234340472146869" lon="6.690650191158056">
        <ele>38.5</ele>
        <time>2014-06-04T02:52:59Z</time>
      </trkpt>
      <trkpt lat="51.236536698415875" lon="6.692970469594002">
        <ele>34.700000000000003</ele>
        <time>2014-06-04T02:53:06Z</time>
      </trkpt>
    </trkseg>
  </trk>

</gpx>